GFSFLT1_con_sbcape_000.txt.gz
CAPE
93 27 48 15 0 0 0 0 0 0 0 1 1 0 0 7 0 0 0 0 0 0 14 18 11 0 2 3 0 19 40 14 3
238 101 79 14 0 0 0 0 0 0 4 14 67 13 14 0 0 0 0 0 0 0 7 12 18 18 18 12 12 10 16 38 27
181 121 59 14 6 0 7 8 10 0 0 1 6 74 39 0 0 0 0 0 0 0 4 21 14 13 19 21 25 28 24 20 22
61 286 112 51 19 19 30 29 4 6 9 1 4 70 37 0 0 0 0 0 0 0 2 11 18 21 17 14 15 21 29 35 36
46 198 132 76 77 81 23 7 17 26 30 19 104 52 0 0 0 0 0 0 0 17 21 4 11 15 17 14 14 13 19 34 22
1 30 58 174 83 63 87 96 141 277 162 127 105 8 0 0 0 0 0 0 17 14 25 64 45 14 33 62 14 27 22 18 23
0 3 48 112 171 246 229 249 429 296 7 0 0 0 0 0 0 0 0 0 44 77 199 445 355 275 287 174 29 44 40 42 45
0 0 0 0 0 0 1 0 0 0 1 0 0 0 0 0 0 0 0 10 37 123 207 385 324 267 345 292 158 377 523 226 292
0 0 0 0 0 2 9 1 0 0 0 0 0 0 0 0 0 0 0 0 0 33 23 149 353 557 373 122 418 368 279 229 279
0 0 0 0 0 0 0 0 0 0 0 0 0 0 0 0 0 0 0 0 0 2 8 34 55 168 191 139 193 189 148 153 342
0 0 0 0 0 0 0 0 0 0 0 0 0 0 0 0 0 0 0 0 0 0 0 0 13 56 49 61 159 167 165 179 159
0 0 0 0 0 0 0 0 0 0 0 0 0 0 0 0 0 0 0 0 0 0 0 0 0 0 0 0 0 43 54 36 40
0 0 0 0 0 0 0 0 0 0 0 0 0 0 0 0 0 0 0 0 0 0 0 0 0 0 0 0 0 0 0 0 4
0 0 0 0 0 0 0 0 0 0 0 0 0 0 0 0 0 0 0 0 0 0 0 0 0 0 0 0 0 0 0 0 0
0 0 0 0 0 0 0 0 0 0 0 0 0 0 0 0 0 0 0 0 0 0 0 0 0 0 0 0 0 0 0 0 0
0 0 0 0 0 0 0 0 0 0 0 0 0 0 0 0 0 0 0 0 0 0 0 0 0 0 0 0 0 0 0 0 0
0 0 0 0 0 0 0 0 0 0 0 0 0 0 0 0 0 0 0 0 0 0 0 0 0 0 0 0 0 0 0 0 0
0 0 0 0 0 0 0 0 0 0 0 0 0 0 0 0 0 0 0 0 0 0 0 0 0 0 0 0 0 0 0 0 0
0 0 0 0 0 0 0 0 0 0 0 0 0 0 0 0 0 0 0 0 0 0 0 0 0 0 0 0 0 0 0 0 3
0 0 0 0 0 0 0 0 0 0 0 0 0 0 0 0 0 0 0 0 0 0 0 0 0 0 0 0 0 0 0 2 8

GFSFLT1_con_sbcape_003.txt.gz
CAPE
43 50 88 26 0 0 0 0 0 0 1 21 40 9 4 4 0 0 0 0 0 0 7 17 25 13 13 19 31 21 60 89 42
113 128 47 20 0 0 0 0 0 1 0 4 26 88 124 4 0 0 0 0 0 0 6 19 19 12 18 14 19 18 18 30 26
137 106 73 20 3 1 0 8 12 18 7 8 6 79 96 2 0 0 0 0 0 0 1 5 17 16 17 12 16 23 18 25 29
58 218 106 66 38 21 35 62 16 7 26 45 60 127 102 7 0 0 0 0 0 24 23 15 14 24 17 27 26 17 15 18 27
29 198 122 100 92 116 82 39 66 112 121 99 216 170 73 0 0 0 0 0 39 174 169 130 93 69 40 48 36 26 32 18 19
0 20 44 112 176 111 146 213 261 377 263 190 158 39 0 0 0 0 0 5 105 219 299 276 220 187 291 380 211 29 48 69 44
0 0 35 120 182 227 194 262 184 23 0 0 0 0 0 0 0 0 0 21 82 32 122 344 224 208 217 138 116 113 191 118 243
0 0 0 0 0 0 1 0 0 0 0 0 0 0 0 0 0 0 0 0 0 0 2 49 239 387 508 189 127 397 199 188 296
0 0 0 0 0 0 0 0 0 0 0 0 0 0 0 0 0 0 0 0 0 0 0 0 12 223 475 120 354 323 205 125 146
0 0 0 0 0 0 0 0 0 0 0 0 0 0 0 0 0 0 0 0 0 0 0 0 10 0 0 0 40 113 86 95 112
0 0 0 0 0 0 0 0 0 0 0 0 0 0 0 0 0 0 0 0 0 0 0 0 0 0 0 0 0 0 0 0 0
0 0 0 0 0 0 0 0 0 0 0 0 0 0 0 0 0 0 0 0 0 0 0 0 0 0 0 0 0 0 0 0 0
0 0 0 0 0 0 0 0 0 0 0 0 0 0 0 0 0 0 0 0 0 0 0 0 0 0 0 0 0 0 0 0 0
0 0 0 0 0 0 0 0 0 0 0 0 0 0 0 0 0 0 0 0 0 0 0 0 0 0 0 0 0 0 0 0 1
0 0 0 0 0 0 0 0 0 0 0 0 0 0 0 0 0 0 0 0 0 0 0 0 0 0 0 0 0 0 0 0 0
0 0 0 0 0 0 0 0 0 0 0 0 0 0 0 0 0 0 0 0 0 0 0 0 0 0 0 0 0 0 0 0 0
0 0 0 0 0 0 0 0 0 0 0 0 0 0 0 0 0 0 0 0 0 0 0 0 0 0 0 0 0 0 0 0 0
0 0 0 0 0 0 0 0 0 0 0 0 0 0 0 0 0 0 0 0 0 0 0 0 0 0 0 0 0 0 0 0 1
0 0 0 0 0 0 0 0 0 0 0 0 0 0 0 0 0 0 0 0 0 0 0 0 0 0 0 0 0 0 0 0 5
0 0 0 0 0 0 0 0 0 0 0 0 0 0 0 0 0 0 0 0 0 0 0 0 0 0 0 0 0 0 0 0 3

GFSFLT1_con_sbcape_006.txt.gz
CAPE
49 45 61 32 0 0 0 0 0 0 0 2 5 42 19 12 0 0 0 0 0 0 0 10 9 25 10 8 10 29 26 77 156
117 76 31 9 0 0 0 0 1 2 3 2 2 29 124 2 0 0 0 0 0 0 0 2 9 13 17 21 8 18 12 36 41
166 145 73 28 0 7 0 8 19 10 2 16 29 64 108 11 0 0 0 0 2 31 29 6 6 5 28 20 10 6 15 22 22
41 168 89 59 51 16 35 44 20 31 60 83 115 229 165 31 0 0 0 0 31 143 134 185 103 42 31 54 98 61 24 21 11
12 151 103 63 40 68 61 96 141 169 181 190 177 147 40 0 0 0 0 3 190 353 372 415 393 355 268 190 196 99 98 63 27
0 0 2 22 67 68 108 215 219 39 3 10 0 0 0 0 0 0 0 14 160 152 141 244 350 361 351 360 298 177 95 76 130
0 0 0 21 22 10 39 20 0 0 0 0 0 0 0 0 0 0 0 0 0 0 0 7 100 35 197 266 261 305 286 269 367
0 0 0 0 0 0 0 0 0 0 0 0 0 0 0 0 0 0 0 0 0 0 0 0 0 82 203 280 244 365 172 196 312
0 0 0 0 0 0 0 0 0 0 0 0 0 0 0 0 0 0 0 0 0 0 0 7 8 0 0 0 13 0 0 3 78
0 0 0 0 0 0 0 0 0 0 0 0 0 0 0 0 0 0 0 0 0 0 0 0 0 0 0 0 0 0 0 0 0
0 0 0 0 0 0 0 0 0 0 0 0 0 0 0 0 0 0 0 0 0 0 0 0 0 0 0 0 0 0 0 0 0
0 0 0 0 0 0 0 0 0 0 0 0 0 0 0 0 0 0 0 0 0 0 0 0 0 0 0 0 0 0 0 0 0
0 0 0 0 0 0 0 0 0 0 0 0 0 0 0 0 0 0 0 0 0 0 0 0 0 0 0 0 0 0 0 0 0
0 0 0 0 0 0 0 0 0 0 0 0 0 0 0 0 0 0 0 0 0 0 0 0 0 0 0 0 0 0 0 0 0
0 0 0 0 0 0 0 0 0 0 0 0 0 0 0 0 0 0 0 0 0 0 0 0 0 0 0 0 0 0 0 0 0
0 0 0 0 0 0 0 0 0 0 0 0 0 0 0 0 0 0 0 0 0 0 0 0 0 0 0 0 0 0 0 0 0
0 0 0 0 0 0 0 0 0 0 0 0 0 0 0 0 0 0 0 0 0 0 0 0 0 0 0 0 0 0 0 0 0
0 0 0 0 0 0 0 0 0 0 0 0 0 0 0 0 0 0 0 0 0 0 0 0 0 0 0 0 0 0 0 0 0
0 0 0 0 0 0 0 0 0 0 0 0 0 0 0 0 0 0 0 0 0 0 0 0 0 0 0 0 0 0 0 0 1
0 0 0 0 0 0 0 0 0 0 0 0 0 0 0 0 0 0 0 0 0 0 0 0 0 0 0 0 0 0 0 2 9

GFSFLT1_con_sbcape_009.txt.gz
CAPE
37 18 46 28 0 0 0 0 0 0 0 1 7 16 38 16 1 0 0 0 0 0 0 0 0 6 5 8 1 0 13 15 35
82 41 23 8 0 0 0 5 9 7 5 4 4 0 57 8 4 0 1 0 4 45 31 5 7 16 11 12 9 9 8 14 13
149 96 44 15 0 6 0 11 18 6 6 25 38 45 96 6 6 4 2 0 18 99 127 131 66 35 13 63 29 12 7 5 19
134 140 63 40 35 16 34 53 51 90 120 127 133 106 65 26 12 0 0 0 49 153 252 275 354 284 195 115 161 283 272 80 17
12 98 100 54 36 64 63 155 197 94 44 30 2 0 0 0 0 0 0 0 135 206 258 282 348 432 452 501 424 406 270 257 185
0 0 0 21 53 64 87 40 0 0 0 0 0 0 0 0 0 0 0 2 68 47 6 0 62 222 187 293 398 442 433 469 693
0 0 0 7 0 0 0 0 0 0 0 0 0 0 0 0 0 0 0 0 0 0 0 0 0 13 89 281 242 176 337 380 437
0 0 0 0 0 0 0 0 0 0 0 0 0 0 0 0 0 0 0 0 0 0 0 9 16 0 0 33 93 83 71 110 254
0 2 0 0 0 0 0 0 0 0 0 0 0 0 0 0 0 0 0 0 0 5 0 0 0 0 13 0 0 0 0 0 0
0 0 0 0 0 0 0 0 0 0 0 0 0 0 0 0 0 0 0 0 0 0 0 0 0 0 0 0 0 0 0 0 0
0 0 0 0 0 0 0 0 0 0 0 0 0 0 0 0 0 0 0 0 0 0 0 0 0 0 0 0 0 0 0 0 0
0 0 0 0 0 0 0 0 0 0 0 0 0 0 0 0 0 0 0 0 0 0 0 0 0 0 0 0 0 0 0 0 0
0 0 0 0 0 0 0 0 0 0 0 0 0 0 0 0 0 0 0 0 0 0 0 0 0 0 0 0 0 0 0 0 0
0 0 0 0 0 0 0 0 0 0 0 0 0 0 0 0 0 0 0 0 0 0 0 0 0 0 0 0 0 0 0 0 0
0 0 0 0 0 0 0 0 0 0 0 0 0 0 0 0 0 0 0 0 0 0 0 0 0 0 0 0 0 0 0 0 0
0 0 0 0 0 0 0 0 0 0 0 0 0 0 0 0 0 0 0 0 0 0 0 0 0 0 0 0 0 0 0 0 0
0 0 0 0 0 0 0 0 0 0 0 0 0 0 0 0 0 0 0 0 0 0 0 0 0 0 0 0 0 0 0 0 0
0 0 0 0 0 0 0 0 0 0 0 0 0 0 0 0 0 0 0 0 0 0 0 0 0 0 0 0 0 0 0 0 0
0 0 0 0 0 0 0 0 0 0 0 0 0 0 0 0 0 0 0 0 0 0 0 0 0 0 0 0 0 0 0 0 1
0 0 0 0 0 0 0 0 0 0 0 0 0 0 0 0 0 0 0 0 0 0 0 0 0 0 0 0 0 0 0 0 8

GFSFLT1_con_sbcape_012.txt.gz
CAPE
0 0 7 0 0 0 0 0 2 4 3 4 1 16 21 10 10 4 3 0 0 4 3 0 0 25 4 10 3 0 6 39 67
53 13 6 0 0 0 0 4 5 5 0 4 17 17 14 0 12 16 19 19 0 40 69 84 38 27 44 30 8 10 6 1 4
109 35 13 1 0 0 0 15 26 26 58 84 86 71 51 24 56 50 55 15 15 100 201 294 329 197 155 129 110 127 5 10 8
167 130 50 20 34 17 33 66 121 156 154 112 35 3 1 5 19 5 15 0 60 168 220 384 392 504 543 388 339 230 337 380 204
88 141 83 34 31 48 92 132 15 0 0 0 0 0 0 0 0 0 0 1 129 159 177 121 61 208 338 324 500 591 563 606 784
0 0 0 15 48 30 27 0 0 0 0 0 0 0 0 0 0 0 0 0 0 0 0 0 0 3 69 141 168 214 430 567 589
0 0 0 0 0 0 0 0 0 0 0 0 0 0 0 0 0 0 0 0 0 0 0 0 5 0 0 54 118 241 261 302 388
0 1 5 57 0 0 0 0 0 0 0 0 0 0 0 0 0 0 0 0 0 0 13 0 0 0 1 0 0 0 0 0 0
0 37 54 1 0 0 0 0 0 0 0 0 0 0 0 0 0 0 0 0 0 0 0 0 0 0 0 0 0 0 0 0 0
47 0 0 0 0 0 0 0 0 0 0 0 0 0 0 0 0 0 0 0 0 0 0 0 0 0 0 0 0 0 0 0 0
0 0 0 0 0 0 0 0 0 0 0 0 0 0 0 0 0 0 0 0 0 0 0 0 0 0 0 0 0 0 0 0 0
0 0 0 0 0 0 0 0 0 0 0 0 0 0 0 0 0 0 0 0 0 0 0 0 0 0 0 0 0 0 0 0 0
0 0 0 0 0 0 0 0 0 0 0 0 0 0 0 0 0 0 0 0 0 0 0 0 0 0 0 0 0 0 0 0 0
0 0 0 0 0 0 0 0 0 0 0 0 0 0 0 0 0 0 0 0 0 0 0 0 0 0 0 0 0 0 0 0 0
0 0 0 0 0 0 0 0 0 0 0 0 0 0 0 0 0 0 0 0 0 0 0 0 0 0 0 0 0 0 0 0 0
0 0 0 0 0 0 0 0 0 0 0 0 0 0 0 0 0 0 0 0 0 0 0 0 0 0 0 0 0 0 0 0 0
0 0 0 0 0 0 0 0 0 0 0 0 0 0 0 0 0 0 0 0 0 0 0 0 0 0 0 0 0 0 0 0 0
0 0 0 0 0 0 0 0 0 0 0 0 0 0 0 0 0 0 0 0 0 0 0 0 0 0 0 0 0 0 0 0 0
0 0 0 0 0 0 0 0 0 0 0 0 0 0 0 0 0 0 0 0 0 0 0 0 0 0 0 0 0 0 0 0 0
0 0 0 0 0 0 0 0 0 0 0 0 0 0 0 0 0 0 0 0 0 0 0 0 0 0 0 0 0 0 0 5 18

GFSFLT1_con_sbcape_015.txt.gz
CAPE
3 0 0 0 0 0 0 1 4 1 1 2 1 0 0 0 13 9 12 3 0 2 14 8 0 0 12 7 5 13 3 16 62
38 1 9 0 0 0 0 2 10 2 0 13 24 12 5 1 24 19 31 53 15 37 42 111 154 64 63 52 82 42 25 16 0
55 17 11 0 1 0 2 10 21 53 108 128 97 36 13 1 11 21 19 15 24 84 111 235 327 352 383 322 238 177 224 116 59
121 55 21 1 0 0 37 124 130 75 37 4 0 0 0 0 0 0 1 0 34 93 67 212 158 128 255 317 378 496 411 346 405
173 212 71 13 14 43 77 0 0 0 0 0 0 0 0 0 0 0 0 0 1 28 29 9 3 5 83 142 144 179 315 518 560
0 0 10 25 14 31 0 0 0 0 0 0 0 0 0 0 0 0 0 0 0 0 0 0 1 40 34 46 158 260 278 296 344
0 0 6 0 3 0 0 0 0 0 0 0 0 0 0 0 0 0 0 0 0 0 13 4 0 11 8 2 0 0 0 0 0
0 0 0 0 0 0 0 0 0 0 0 0 0 0 0 0 0 0 0 0 7 16 0 0 4 0 0 1 0 0 0 0 0
0 0 46 5 0 0 0 0 0 0 0 0 0 0 0 0 0 0 0 0 0 0 0 0 0 0 0 0 0 0 0 0 0
10 5 0 0 0 0 0 0 0 0 0 0 0 0 0 0 0 0 0 0 0 0 0 0 0 0 0 0 0 0 0 0 0
0 0 0 0 0 0 0 0 0 0 0 0 0 0 0 0 0 0 0 0 0 0 0 0 0 0 0 0 0 0 0 0 0
0 0 0 0 0 0 0 0 0 0 0 0 0 0 0 0 0 0 0 0 0 0 0 0 0 0 0 0 0 0 0 0 0
0 0 0 0 0 0 0 0 0 0 0 0 0 0 0 0 0 0 0 0 0 0 0 0 0 0 0 0 0 0 0 0 0
0 0 0 0 0 0 0 0 0 0 0 0 0 0 0 0 0 0 0 0 0 0 0 0 0 0 0 0 0 0 0 0 0
0 0 0 0 0 0 0 0 0 0 0 0 0 0 0 0 0 0 0 0 0 0 0 0 0 0 0 0 0 0 0 0 0
0 0 0 0 0 0 0 0 0 0 0 0 0 0 0 0 0 0 0 0 0 0 0 0 0 0 0 0 0 0 0 0 0
0 0 0 0 0 0 0 0 0 0 0 0 0 0 0 0 0 0 0 0 0 0 0 0 0 0 0 0 0 0 0 0 0
0 0 0 0 0 0 0 0 0 0 0 0 0 0 0 0 0 0 0 0 0 0 0 0 0 0 0 0 0 0 0 0 1
0 0 0 0 0 0 0 0 0 0 0 0 0 0 0 0 0 0 0 0 0 0 0 0 0 0 0 0 0 0 0 0 2
0 0 0 0 0 0 0 0 0 0 0 0 0 0 0 0 0 0 0 0 0 0 0 0 0 0 0 0 0 0 0 3 17

GFSFLT1_con_sbcape_018.txt.gz
CAPE
2 0 3 0 0 0 6 6 3 0 0 0 0 0 0 0 0 0 1 0 24 22 4 1 24 1 0 11 13 5 9 4 28
0 0 0 0 0 0 2 13 4 0 2 11 6 2 1 0 3 8 11 31 51 53 21 141 203 219 151 136 91 84 85 45 35
54 4 0 0 0 0 1 0 16 77 68 43 10 2 0 0 0 0 0 8 26 51 20 169 166 157 216 286 298 342 233 188 221
111 40 0 5 0 1 82 57 10 5 0 0 0 0 0 0 0 0 0 0 0 21 32 23 10 10 78 155 145 163 251 391 401
292 199 111 2 10 49 0 0 0 0 0 0 0 0 0 0 0 0 0 0 0 0 0 0 0 60 87 79 169 247 282 321 341
85 16 19 37 17 0 0 0 0 0 0 0 0 0 0 0 0 0 0 0 0 0 4 10 13 37 14 17 9 4 0 0 0
0 0 21 12 0 0 0 0 0 0 0 0 0 0 0 0 0 0 0 0 0 27 5 21 10 2 8 7 0 1 0 0 0
0 0 0 0 0 0 0 0 0 0 0 0 0 0 0 0 0 0 0 11 25 10 23 2 0 1 4 0 0 0 0 1 0
0 0 0 0 0 0 0 0 0 0 0 0 0 0 0 0 0 0 0 0 0 6 0 0 0 0 0 0 0 0 0 0 0
0 0 0 0 0 0 0 0 0 0 0 0 0 0 0 0 0 0 0 0 0 0 0 0 0 0 0 0 0 0 0 0 0
0 0 0 0 0 0 0 0 0 0 0 0 0 0 0 0 0 0 0 0 0 0 0 0 0 0 0 0 0 0 0 0 0
0 0 0 0 0 0 0 0 0 0 0 0 0 0 0 0 0 0 0 0 0 0 0 0 0 0 0 0 0 0 0 0 0
0 0 0 0 0 0 0 0 0 0 0 0 0 0 0 0 0 0 0 0 0 0 0 0 0 0 0 0 0 0 0 0 0
0 0 0 0 0 0 0 0 0 0 0 0 0 0 0 0 0 0 0 0 0 0 0 0 0 0 0 0 0 0 0 0 0
0 0 0 0 0 0 0 0 0 0 0 0 0 0 0 0 0 0 0 0 0 0 0 0 0 0 0 0 0 0 0 0 0
0 0 0 0 0 0 0 0 0 0 0 0 0 0 0 0 0 0 0 0 0 0 0 0 0 0 0 0 0 0 0 0 0
0 0 0 0 0 0 0 0 0 0 0 0 0 0 0 0 0 0 0 0 0 0 0 0 0 0 0 0 0 0 0 0 1
0 0 0 0 0 0 0 0 0 0 0 0 0 0 0 0 0 0 0 0 0 0 0 0 0 0 0 0 0 0 0 0 1
0 0 0 0 0 0 0 0 0 0 0 0 0 0 0 0 0 0 0 0 0 0 0 0 0 0 0 0 0 0 0 0 2
0 0 0 0 0 0 0 0 0 0 0 0 0 0 0 0 0 0 0 0 0 0 0 0 0 0 0 0 0 0 0 0 4

GFSFLT1_con_sbcape_021.txt.gz
CAPE
0 0 0 0 0 4 4 2 0 0 0 0 0 0 0 8 0 0 14 0 35 14 3 0 33 42 0 0 3 16 0 0 3
3 0 0 0 0 0 6 4 0 0 1 0 0 0 0 0 0 8 10 10 33 14 4 66 205 177 191 214 215 122 85 70 42
23 0 0 1 0 1 1 1 34 52 15 0 0 0 0 0 0 0 0 3 2 3 4 60 41 20 72 141 155 185 256 273 219
72 10 8 0 0 35 64 41 5 0 0 0 0 0 0 0 0 0 0 0 0 0 0 1 0 84 122 165 225 255 279 298 356
378 212 170 0 10 28 0 0 0 0 0 0 0 0 0 0 0 0 0 0 0 0 0 0 58 70 36 20 20 17 8 9 45
114 40 56 90 57 0 0 0 0 0 0 0 0 0 0 0 0 0 0 0 0 25 22 44 32 24 19 4 5 1 0 0 0
26 9 38 105 50 0 0 0 0 0 0 0 0 0 0 0 0 0 0 0 31 35 29 23 18 25 14 3 1 2 6 5 4
0 0 0 0 0 0 0 0 0 0 0 0 0 0 0 0 0 0 4 7 11 25 15 7 3 3 0 0 0 1 1 0 0
0 0 0 0 0 0 0 0 0 0 0 0 0 0 0 0 0 0 0 0 8 2 0 0 0 0 0 0 0 0 0 0 0
0 0 0 0 0 0 0 0 0 0 0 0 0 0 0 0 0 0 0 0 0 0 0 0 0 0 0 0 0 0 0 0 0
0 0 0 0 0 0 0 0 0 0 0 0 0 0 0 0 0 0 0 0 0 0 0 0 0 0 0 0 0 0 0 0 0
0 0 0 0 0 0 0 0 0 0 0 0 0 0 0 0 0 0 0 0 0 0 0 0 0 0 0 0 0 0 0 0 0
0 0 0 0 0 0 0 0 0 0 0 0 0 0 0 0 0 0 0 0 0 0 0 0 0 0 0 0 0 0 0 0 0
0 0 0 0 0 0 0 0 0 0 0 0 0 0 0 0 0 0 0 0 0 0 0 0 0 0 0 0 0 0 0 0 0
0 0 0 0 0 0 0 0 0 0 0 0 0 0 0 0 0 0 0 0 0 0 0 0 0 0 0 0 0 0 0 0 0
0 0 0 0 0 0 0 0 0 0 0 0 0 0 0 0 0 0 0 0 0 0 0 0 0 0 0 0 0 0 0 0 0
0 0 0 0 0 0 0 0 0 0 0 0 0 0 0 0 0 0 0 0 0 0 0 0 0 0 0 0 0 0 0 0 0
0 0 0 0 0 0 0 0 0 0 0 0 0 0 0 0 0 0 0 0 0 0 0 0 0 0 0 0 0 0 0 0 0
0 0 0 0 0 0 0 0 0 0 0 0 0 0 0 0 0 0 0 0 0 0 0 0 0 0 0 0 0 0 0 0 1
0 0 0 0 0 0 0 0 0 0 0 0 0 0 0 0 0 0 0 0 0 0 0 0 0 0 0 0 0 0 0 0 0

GFSFLT1_con_sbcape_024.txt.gz
CAPE
4 0 0 0 2 4 1 0 0 0 0 0 0 0 7 0 0 0 0 0 37 10 0 17 49 56 2 0 0 4 7 5 0
3 0 0 1 4 5 8 0 0 0 0 0 0 0 0 0 0 0 11 18 35 12 2 115 69 61 119 158 153 200 110 81 42
29 0 0 2 1 11 10 11 35 36 0 0 0 0 0 0 0 0 0 5 2 2 9 7 0 63 133 149 176 169 231 254 252
89 27 31 0 7 45 89 86 21 0 0 0 0 0 0 0 0 0 0 0 0 0 0 0 47 50 37 34 53 51 111 175 242
341 210 208 19 95 74 35 9 0 0 0 0 0 0 0 0 0 0 0 0 0 0 0 36 68 56 23 17 8 4 5 4 18
199 85 165 168 187 31 1 0 0 0 0 0 0 0 0 0 0 0 0 0 29 44 58 40 51 36 18 15 7 14 15 14 9
67 76 70 246 221 15 0 0 0 0 0 0 0 0 0 0 0 0 0 26 52 42 34 41 35 26 13 10 8 7 4 2 2
2 0 8 16 4 0 0 0 0 0 0 0 0 0 0 0 0 0 25 26 46 26 18 8 6 1 1 0 0 0 0 0 0
0 0 0 0 0 0 0 0 0 0 0 0 0 0 0 0 0 0 0 10 2 6 0 0 0 0 0 0 0 0 0 0 0
0 0 0 0 0 0 0 0 0 0 0 0 0 0 0 0 0 0 0 0 0 0 0 0 0 0 0 0 0 0 0 0 0
0 0 0 0 0 0 0 0 0 0 0 0 0 0 0 0 0 0 0 0 0 0 0 0 0 0 0 0 0 0 0 0 0
0 0 0 0 0 0 0 0 0 0 0 0 0 0 0 0 0 0 0 0 0 0 0 0 0 0 0 0 0 0 0 0 0
0 0 0 0 0 0 0 0 0 0 0 0 0 0 0 0 0 0 0 0 0 0 0 0 0 0 0 0 0 0 0 0 0
0 0 0 0 0 0 0 0 0 0 0 0 0 0 0 0 0 0 0 0 0 0 0 0 0 0 0 0 0 0 0 0 0
0 0 0 0 0 0 0 0 0 0 0 0 0 0 0 0 0 0 0 0 0 0 0 0 0 0 0 0 0 0 0 0 0
0 0 0 0 0 0 0 0 0 0 0 0 0 0 0 0 0 0 0 0 0 0 0 0 0 0 0 0 0 0 0 0 0
0 0 0 0 0 0 0 0 0 0 0 0 0 0 0 0 0 0 0 0 0 0 0 0 0 0 0 0 0 0 0 0 0
0 0 0 0 0 0 0 0 0 0 0 0 0 0 0 0 0 0 0 0 0 0 0 0 0 0 0 0 0 0 0 0 0
0 0 0 0 0 0 0 0 0 0 0 0 0 0 0 0 0 0 0 0 0 0 0 0 0 0 0 0 0 0 0 0 0
0 0 0 0 0 0 0 0 0 0 0 0 0 0 0 0 0 0 0 0 0 0 0 0 0 0 0 0 0 0 0 0 1

GFSFLT1_con_sbcape_027.txt.gz
CAPE
0 0 0 0 2 1 0 0 0 0 0 0 0 4 0 0 0 0 0 0 47 11 0 44 89 90 29 0 0 6 5 5 0
0 0 0 1 4 4 2 0 0 2 2 0 0 0 0 0 0 0 0 3 28 4 4 37 15 57 109 129 147 178 174 124 50
14 0 0 0 3 27 7 7 30 21 0 0 0 0 0 0 0 0 0 0 0 8 1 0 40 127 113 113 126 190 210 236 274
63 23 13 1 35 52 51 119 43 0 0 0 0 0 0 0 0 0 0 0 0 0 0 0 67 29 24 10 7 26 43 72 130
285 183 187 16 84 236 163 63 0 0 0 0 0 0 0 0 0 0 0 0 0 0 2 126 67 25 15 8 11 12 9 9 5
212 102 207 170 279 109 59 0 0 0 0 0 0 0 0 0 0 0 0 1 60 99 64 68 35 21 8 8 8 9 7 10 9
140 110 168 312 340 109 0 0 0 0 0 0 0 0 0 0 0 0 0 43 54 51 43 34 30 20 7 11 7 5 2 1 0
34 16 45 42 68 0 0 0 0 0 0 0 0 0 0 0 0 0 46 41 34 20 14 7 1 2 0 0 0 0 0 0 0
0 0 0 0 0 0 0 0 0 0 0 0 0 0 0 0 0 0 21 7 1 2 0 0 0 0 0 0 0 0 0 0 0
0 0 0 0 0 0 0 0 0 0 0 0 0 0 0 0 0 0 0 0 0 0 0 0 0 0 0 0 0 0 0 0 0
0 0 0 0 0 0 0 0 0 0 0 0 0 0 0 0 0 0 0 0 0 0 0 0 0 0 0 0 0 0 0 0 0
0 0 0 0 0 0 0 0 0 0 0 0 0 0 0 0 0 0 0 0 0 0 0 0 0 0 0 0 0 0 0 0 0
0 0 0 0 0 0 0 0 0 0 0 0 0 0 0 0 0 0 0 0 0 0 0 0 0 0 0 0 0 0 0 0 0
0 0 0 0 0 0 0 0 0 0 0 0 0 0 0 0 0 0 0 0 0 0 0 0 0 0 0 0 0 0 0 0 0
0 0 0 0 0 0 0 0 0 0 0 0 0 0 0 0 0 0 0 0 0 0 0 0 0 0 0 0 0 0 0 0 0
0 0 0 0 0 0 0 0 0 0 0 0 0 0 0 0 0 0 0 0 0 0 0 0 0 0 0 0 0 0 0 0 0
0 0 0 0 0 0 0 0 0 0 0 0 0 0 0 0 0 0 0 0 0 0 0 0 0 0 0 0 0 0 0 0 0
0 0 0 0 0 0 0 0 0 0 0 0 0 0 0 0 0 0 0 0 0 0 0 0 0 0 0 0 0 0 0 0 0
0 0 0 0 0 0 0 0 0 0 0 0 0 0 0 0 0 0 0 0 0 0 0 0 0 0 0 0 0 0 0 0 0
0 0 0 0 0 0 0 0 0 0 0 0 0 0 0 0 0 0 0 0 0 0 0 0 0 0 0 0 0 0 0 0 0

GFSFLT1_con_sbcape_030.txt.gz
CAPE
0 0 2 3 1 1 0 0 0 0 2 1 0 0 0 0 0 0 0 0 36 9 2 110 100 124 70 4 5 7 10 3 1
0 0 0 3 5 3 0 1 6 17 16 1 0 0 0 0 0 0 0 0 19 0 27 0 100 139 154 144 175 183 211 174 135
0 0 0 2 10 35 18 35 60 4 0 0 0 0 0 0 0 0 0 0 0 1 0 9 88 58 19 17 14 56 81 158 299
42 14 8 15 57 62 86 160 28 0 0 0 0 0 0 0 0 0 0 0 0 0 0 97 64 32 10 10 8 4 11 7 20
167 160 126 27 101 153 219 69 0 0 0 0 0 0 0 0 0 0 0 0 0 1 104 69 33 23 9 16 7 4 11 13 6
181 89 164 127 267 177 109 1 0 0 0 0 0 0 0 0 0 0 0 28 83 78 48 33 27 12 8 14 6 8 11 11 9
129 95 175 230 298 159 13 0 0 0 0 0 0 0 0 0 0 0 8 54 61 38 28 19 18 5 3 6 4 2 1 1 0
64 42 68 56 34 0 0 0 0 0 0 0 0 0 0 0 0 2 48 33 25 15 10 1 0 0 0 0 0 0 0 0 0
22 13 3 0 0 0 0 0 0 0 0 0 0 0 0 0 0 0 15 3 0 0 0 0 0 0 0 0 0 0 0 0 0
0 0 0 0 0 0 0 0 0 0 0 0 0 0 0 0 0 0 0 0 0 0 0 0 0 0 0 0 0 0 0 0 0
0 0 0 0 0 0 0 0 0 0 0 0 0 0 0 0 0 0 0 0 0 0 0 0 0 0 0 0 0 0 0 0 1
0 0 0 0 0 0 0 0 0 0 0 0 0 0 0 0 0 0 0 0 0 0 0 0 0 0 0 0 0 0 0 0 0
0 0 0 0 0 0 0 0 0 0 0 0 0 0 0 0 0 0 0 0 0 0 0 0 0 0 0 0 0 0 0 0 0
0 0 0 0 0 0 0 0 0 0 0 0 0 0 0 0 0 0 0 0 0 0 0 0 0 0 0 0 0 0 0 0 0
0 0 0 0 0 0 0 0 0 0 0 0 0 0 0 0 0 0 0 0 0 0 0 0 0 0 0 0 0 0 0 0 0
0 0 0 0 0 0 0 0 0 0 0 0 0 0 0 0 0 0 0 0 0 0 0 0 0 0 0 0 0 0 0 0 0
0 0 0 0 0 0 0 0 0 0 0 0 0 0 0 0 0 0 0 0 0 0 0 0 0 0 0 0 0 0 0 0 0
0 0 0 0 0 0 0 0 0 0 0 0 0 0 0 0 0 0 0 0 0 0 0 0 0 0 0 0 0 0 0 0 0
0 0 0 0 0 0 0 0 0 0 0 0 0 0 0 0 0 0 0 0 0 0 0 0 0 0 0 0 0 0 0 0 0
0 0 0 0 0 0 0 0 0 0 0 0 0 0 0 0 0 0 0 0 0 0 0 0 0 0 0 0 0 0 0 0 0

GFSFLT1_con_sbcape_033.txt.gz
CAPE
1 3 2 0 0 0 0 0 0 0 2 6 0 0 0 0 0 0 0 31 31 6 50 41 95 174 45 152 13 158 0 0 0
1 1 1 3 1 0 1 8 27 23 5 0 0 0 0 0 0 1 8 4 11 15 0 132 154 128 109 117 179 193 263 343 278
0 1 9 13 19 16 39 61 31 0 0 0 0 0 0 0 0 0 0 0 0 0 0 81 49 13 8 14 13 14 20 59 127
0 11 21 36 103 88 99 83 0 0 0 0 0 0 0 0 0 0 0 0 0 0 42 54 30 10 12 10 17 17 17 13 9
101 77 70 63 133 139 187 11 0 0 0 0 0 0 0 0 0 0 0 0 0 57 62 47 28 17 1 4 9 9 5 5 5
115 55 91 125 256 224 95 0 0 0 0 0 0 0 0 0 0 0 0 99 102 49 26 17 10 9 0 3 9 8 7 8 7
182 83 113 168 245 177 11 0 0 0 0 0 0 0 0 0 0 0 36 61 44 18 4 1 0 0 0 1 1 0 0 0 0
283 226 240 187 39 0 0 0 0 0 0 0 0 0 0 0 0 15 56 30 19 2 0 0 0 0 0 0 0 0 0 0 0
288 244 236 169 68 0 0 0 0 0 0 0 0 0 0 0 0 0 5 3 0 0 0 0 0 0 0 0 0 0 0 0 0
225 202 156 111 8 0 0 0 0 0 0 0 0 0 0 0 0 0 0 0 0 0 0 0 0 0 0 0 0 0 0 0 0
178 134 101 50 0 0 0 0 0 0 0 0 0 0 0 0 0 0 0 0 0 0 0 0 0 0 0 0 0 0 0 0 0
148 116 65 30 0 0 0 0 0 0 0 0 0 0 0 0 0 0 0 0 0 0 0 0 0 0 0 0 0 0 0 0 0
50 80 56 2 0 0 0 0 0 0 0 0 0 0 0 0 0 0 0 0 0 0 0 0 0 0 0 0 0 0 0 0 0
0 1 19 0 0 0 0 0 0 0 0 0 0 0 0 0 0 0 0 0 0 0 0 0 0 0 0 0 0 0 0 0 0
0 0 0 0 0 0 0 0 0 0 0 0 0 0 0 0 0 0 0 0 0 0 0 0 0 0 0 0 0 0 0 0 0
0 0 0 0 0 0 0 0 0 0 0 0 0 0 0 0 0 0 0 0 0 0 0 0 0 0 0 0 0 0 0 0 0
0 0 0 0 0 0 0 0 0 0 0 0 0 0 0 0 0 0 0 0 0 0 0 0 0 0 0 0 0 0 0 0 0
0 0 0 0 0 0 0 0 0 0 0 0 0 0 0 0 0 0 0 0 0 0 0 0 0 0 0 0 0 0 0 0 0
0 0 0 0 0 0 0 0 0 0 0 0 0 0 0 0 0 0 0 0 0 0 0 0 0 0 0 0 0 0 0 0 0
0 0 0 0 0 0 0 0 0 0 0 0 0 0 0 0 0 0 0 0 0 0 0 0 0 0 0 0 0 0 0 0 0

GFSFLT1_con_sbcape_036.txt.gz
CAPE
2 4 0 0 0 0 0 0 0 0 7 3 0 0 0 0 1 7 10 32 2 17 1 153 233 187 216 290 14 370 38 106 0
2 1 0 0 0 0 0 3 7 4 0 0 0 0 0 5 4 17 13 22 13 1 127 175 148 121 51 48 64 93 266 556 308
1 2 4 2 2 5 22 53 1 0 0 0 0 0 0 4 12 3 0 0 0 0 83 39 6 15 14 8 12 12 27 27 55
1 24 32 49 59 65 101 5 0 0 0 0 0 0 0 0 0 0 0 0 0 0 115 38 26 18 6 8 5 8 4 0 3
40 99 80 116 157 170 92 0 0 0 0 0 0 0 0 0 0 0 0 0 1 100 52 38 23 8 5 1 8 3 9 7 4
23 18 84 159 178 241 26 0 0 0 0 0 0 0 0 0 0 0 40 118 77 44 21 11 7 1 0 1 7 8 5 3 2
39 24 66 198 268 213 5 0 0 0 0 0 0 0 0 0 0 0 88 36 24 8 2 2 0 0 0 1 2 1 0 0 0
196 121 117 94 67 88 0 0 0 0 0 0 0 0 0 0 0 24 85 32 11 0 0 0 0 0 0 0 0 0 0 0 0
233 221 129 92 83 37 0 0 0 0 0 0 0 0 0 0 0 9 16 2 0 0 0 0 0 0 0 0 0 0 0 0 0
264 234 191 153 90 8 0 0 0 0 0 0 0 0 0 0 0 7 0 0 0 0 0 0 0 0 0 0 0 0 0 0 0
236 219 200 167 139 20 0 0 0 0 0 0 0 0 0 0 0 1 0 0 0 0 0 0 0 0 0 0 0 0 0 0 0
195 279 272 224 155 41 0 0 0 0 0 0 0 0 0 0 0 0 0 0 0 0 0 0 0 0 0 0 0 0 0 0 0
149 233 306 290 146 23 0 0 0 0 0 0 0 0 0 0 0 0 0 0 0 0 0 0 0 0 0 0 0 0 0 0 0
65 135 188 187 126 0 0 0 0 0 0 0 0 0 0 0 0 0 0 0 0 0 0 0 0 0 0 0 0 0 0 0 0
89 49 81 117 83 0 0 0 0 0 0 0 0 0 0 0 0 0 0 0 0 0 0 0 0 0 0 0 0 0 0 0 0
170 67 48 79 48 0 0 0 0 0 0 0 0 0 0 0 0 0 0 0 0 0 0 0 0 0 0 0 0 0 0 0 0
320 156 100 46 16 0 0 0 0 0 0 0 0 0 0 0 0 0 0 0 0 0 0 0 0 0 0 0 0 0 0 0 0
501 263 201 91 11 11 0 0 0 0 0 0 0 0 0 0 0 0 0 0 0 0 0 0 0 0 0 0 0 0 0 0 0
658 352 199 64 0 0 0 0 0 0 0 0 0 0 0 0 0 0 0 0 0 0 0 0 0 0 0 0 0 0 0 0 0
474 274 204 77 1 0 0 0 0 0 0 0 0 0 0 0 0 0 0 0 0 0 0 0 0 0 0 0 0 0 0 0 0

GFSFLT1_con_sbcape_039.txt.gz
CAPE
4 8 1 0 0 0 0 0 0 0 5 0 0 0 0 0 10 25 22 21 18 2 157 234 278 210 363 245 302 382 426 351 10
3 0 0 0 0 0 0 1 3 2 0 0 0 0 0 7 9 15 18 3 1 7 220 80 90 84 94 128 96 162 187 476 459
1 0 0 0 0 0 21 8 0 0 0 0 0 0 0 9 9 1 0 0 0 1 34 7 10 14 13 3 1 3 16 74 129
0 1 5 9 17 45 79 0 0 0 0 0 0 0 0 0 0 0 0 0 0 52 53 39 16 12 7 5 4 5 3 3 3
35 71 48 124 101 122 9 0 0 0 0 0 0 0 0 0 0 0 0 0 3 73 45 29 18 4 3 3 8 5 9 8 9
0 7 82 126 151 191 0 0 0 0 0 0 0 0 0 0 0 0 145 85 95 27 10 8 7 3 2 3 4 6 4 2 1
0 0 41 136 283 154 0 0 0 0 0 0 0 0 0 0 0 7 120 31 15 3 0 0 0 0 0 1 1 0 0 0 0
20 41 0 76 88 89 0 0 0 0 0 0 0 0 0 0 0 10 69 18 2 0 0 0 0 0 0 0 0 0 0 0 0
72 51 27 2 128 92 8 0 0 0 0 0 0 0 0 0 2 0 15 11 0 0 0 0 0 0 0 0 0 0 0 0 3
174 109 97 59 39 41 2 0 0 0 0 0 0 0 0 0 0 1 0 0 0 0 0 0 0 0 0 0 0 0 0 0 1
325 214 154 121 112 54 6 0 0 0 0 0 0 0 0 0 0 0 0 0 0 0 0 0 0 0 0 0 0 0 0 0 0
106 161 230 177 130 97 19 0 0 0 0 0 0 0 0 0 0 0 0 0 0 0 0 0 0 0 0 0 0 0 0 0 0
114 177 278 177 157 160 55 0 0 0 0 0 0 0 0 0 0 0 0 0 0 0 0 0 0 0 0 0 0 0 0 0 0
104 172 280 226 208 137 86 0 0 0 0 0 0 0 0 0 0 0 0 0 0 0 0 0 0 0 0 0 0 0 0 0 0
293 162 169 264 303 102 55 0 0 0 0 0 0 0 0 0 0 0 0 0 0 0 0 0 0 0 0 0 0 0 0 0 0
591 405 218 222 236 185 42 0 0 0 0 0 0 0 0 0 0 0 0 0 0 0 0 0 0 0 0 0 0 0 0 0 0
911 671 458 256 245 196 47 0 0 0 0 0 0 0 0 0 0 0 0 0 0 0 0 0 0 0 0 0 0 0 0 0 0
894 863 707 507 324 256 111 0 0 0 0 0 0 0 0 0 0 0 0 0 0 0 0 0 0 0 0 0 0 0 0 0 0
1012 725 651 611 402 264 151 4 0 0 0 0 0 0 0 0 0 0 0 0 0 0 0 0 0 0 0 0 0 0 0 0 0
618 695 636 392 432 324 93 5 0 0 0 0 0 0 0 0 0 0 0 0 0 0 0 0 0 0 0 0 0 0 0 0 0

GFSFLT1_con_sbcape_042.txt.gz
CAPE
18 12 2 0 0 0 0 0 0 2 0 0 0 0 0 7 2 11 26 0 5 133 192 187 179 203 282 283 293 464 460 161 181
10 1 0 0 0 0 0 2 3 0 0 0 0 0 0 0 2 0 0 0 1 104 94 107 108 43 34 42 42 217 342 429 474
1 1 0 0 0 3 17 2 0 0 0 0 0 0 0 0 0 0 0 0 0 20 12 5 4 8 7 1 2 6 25 51 118
0 0 0 0 10 44 10 0 0 0 0 0 0 0 0 0 0 0 0 0 0 50 27 10 5 0 5 2 3 7 7 4 7
3 27 45 59 49 108 0 0 0 0 0 0 0 0 0 0 0 0 0 0 42 65 23 7 3 2 2 3 4 8 6 8 7
0 0 24 103 217 109 0 0 0 0 0 0 0 0 0 0 0 0 96 88 82 22 12 3 5 2 2 3 4 3 3 2 1
0 0 45 107 211 97 0 0 0 0 0 0 0 0 0 0 0 0 133 49 24 5 0 0 0 1 0 1 1 2 1 1 1
0 0 1 37 63 0 0 0 0 0 0 0 0 0 0 0 0 11 80 13 4 0 0 0 0 2 0 0 0 0 0 2 3
4 2 0 4 39 35 0 0 0 0 0 0 0 0 0 0 0 0 0 14 0 0 0 0 0 1 0 0 0 0 0 2 0
23 8 1 0 13 6 0 0 0 0 0 0 0 0 0 0 0 0 0 0 0 0 0 0 0 0 0 0 0 0 0 1 0
38 34 35 19 12 0 0 0 0 0 0 0 0 0 0 0 0 0 0 0 0 0 0 0 0 0 0 0 0 0 0 0 0
39 45 26 34 40 26 0 0 0 0 0 0 0 0 0 0 0 0 0 0 0 0 0 0 0 0 0 0 0 0 0 0 0
15 21 35 45 59 51 9 0 0 0 0 0 0 0 0 0 0 0 0 0 0 0 0 0 0 0 0 0 0 0 0 0 0
11 8 20 51 56 62 59 0 0 0 0 0 0 0 0 0 0 0 0 0 0 0 0 0 0 0 0 0 0 0 0 0 0
0 0 8 46 39 49 55 0 0 0 0 0 0 0 0 0 0 0 0 0 0 0 0 0 0 0 0 0 0 0 0 0 0
91 0 0 12 41 85 30 0 0 0 0 0 0 0 0 0 0 0 0 0 0 0 0 0 0 0 0 0 0 0 0 0 0
182 152 49 27 2 9 0 0 0 0 0 0 0 0 0 0 0 0 0 0 0 0 0 0 0 0 0 0 0 0 0 0 0
332 380 136 74 18 7 8 0 0 0 0 0 0 0 0 0 0 0 0 0 0 0 0 0 0 0 0 0 0 0 0 0 0
476 446 417 325 83 36 18 0 0 0 0 0 0 0 0 0 0 0 0 0 0 0 0 0 0 0 0 0 0 0 0 0 0
384 465 483 416 260 146 34 35 0 0 0 0 0 0 0 0 0 0 0 0 0 0 0 0 0 0 0 0 0 0 0 0 0

GFSFLT1_con_sbcape_045.txt.gz
CAPE
51 27 5 5 2 0 0 1 3 0 0 0 0 0 1 1 0 0 0 0 115 178 157 137 210 191 184 160 428 433 310 320 433
9 5 0 0 0 0 0 2 1 0 0 0 0 0 0 0 0 0 0 0 72 111 98 64 38 17 13 46 104 193 334 351 433
3 1 0 0 0 2 1 0 0 0 0 0 0 0 0 0 0 0 0 0 16 17 11 2 0 2 5 4 7 13 38 52 81
2 0 0 0 3 38 0 0 0 0 0 0 0 0 0 0 0 0 0 0 25 38 13 8 7 4 3 5 8 3 7 4 4
25 50 41 57 74 48 0 0 0 0 0 0 0 0 0 0 0 0 0 0 92 35 18 8 2 2 3 4 5 8 9 11 8
10 0 74 140 193 22 0 0 0 0 0 0 0 0 0 0 0 0 54 130 88 23 12 4 1 1 2 2 4 5 4 3 5
0 0 35 172 196 64 0 0 0 0 0 0 0 0 0 0 0 45 280 132 42 10 0 0 0 0 0 0 1 1 1 3 4
0 1 17 26 110 2 1 0 0 0 0 0 0 0 0 0 0 46 156 29 8 0 0 0 0 0 0 0 0 0 3 2 0
0 0 0 12 20 0 0 0 0 0 0 0 0 0 0 0 0 16 57 26 1 0 0 0 0 0 0 0 0 1 2 1 0
0 0 0 2 18 18 0 0 0 0 0 0 0 0 0 0 0 0 0 0 0 0 0 0 0 1 0 0 1 0 2 0 0
0 0 0 0 5 7 4 0 0 0 0 0 0 0 0 0 0 0 0 0 0 0 0 0 0 2 0 0 0 0 0 0 0
0 0 0 0 0 1 0 0 0 0 0 0 0 0 0 0 0 0 0 0 0 0 0 0 0 3 0 0 0 0 0 0 0
0 0 0 0 0 0 0 0 0 0 0 0 0 0 0 0 0 0 0 0 0 0 0 0 0 1 2 0 0 0 0 0 0
0 0 0 0 0 0 0 0 0 0 0 0 0 0 0 0 0 0 0 0 0 0 0 0 0 0 0 0 0 0 0 0 0
0 0 0 0 0 3 0 0 0 0 0 0 0 0 0 0 0 0 0 0 0 0 0 0 0 0 0 0 0 0 0 0 0
0 0 0 0 11 30 13 1 0 0 0 0 0 0 0 0 0 0 0 0 0 0 0 0 0 0 0 0 0 0 0 0 0
57 0 0 0 11 0 5 0 0 0 0 0 0 0 0 0 0 0 0 0 0 0 0 0 0 0 0 0 0 0 0 0 0
100 64 0 0 0 0 21 0 0 0 0 0 0 0 0 0 0 0 0 0 0 0 0 0 0 0 0 0 0 0 0 0 0
127 107 63 0 0 0 0 0 0 0 0 0 0 0 0 0 0 0 0 0 0 0 0 0 0 0 0 0 0 0 0 0 0
98 113 104 1 2 20 0 0 0 0 0 0 0 0 0 0 0 0 0 0 0 0 0 0 0 0 0 0 0 0 0 0 0

GFSFLT1_con_sbcape_048.txt.gz
CAPE
96 63 19 7 1 0 0 2 0 0 0 0 0 0 0 0 0 0 0 0 161 150 138 183 164 142 119 312 367 288 296 398 476
26 4 3 0 0 0 1 1 0 0 0 0 0 0 0 0 0 0 0 0 121 94 27 40 41 2 39 53 168 221 232 333 376
39 20 0 0 0 1 1 0 0 0 0 0 0 0 0 0 0 0 0 6 11 3 10 0 0 2 3 4 2 59 57 86 137
25 20 0 0 2 22 0 0 0 0 0 0 0 0 0 0 0 0 0 2 32 28 15 5 3 2 3 4 1 10 15 12 9
38 73 74 64 116 64 0 0 0 0 0 0 0 0 0 0 0 0 0 2 90 37 19 2 5 1 1 3 5 3 2 2 4
27 14 61 128 194 52 0 0 0 0 0 0 0 0 0 0 0 0 0 224 141 25 12 6 1 1 1 2 4 4 6 5 6
22 18 55 124 187 75 3 0 0 0 0 0 0 0 0 0 0 0 185 264 120 15 1 2 0 0 0 2 3 2 4 5 5
1 1 28 68 123 30 4 0 0 0 0 0 0 0 0 0 0 96 321 180 48 1 0 0 0 0 0 1 1 4 2 1 1
0 0 7 19 44 13 0 0 0 0 0 0 0 0 0 0 0 42 130 149 31 3 0 0 1 0 0 0 1 5 1 0 1
0 0 0 0 10 7 0 0 0 0 0 0 0 0 0 0 0 0 43 75 39 0 0 0 2 0 0 1 1 3 0 0 0
0 0 0 0 0 0 0 0 0 0 0 0 0 0 0 0 0 0 0 25 47 0 0 0 1 3 1 2 1 2 1 0 0
0 0 0 0 0 0 0 0 0 0 0 0 0 0 0 0 0 0 0 0 0 0 0 0 0 5 3 3 2 0 1 0 0
0 0 0 0 0 0 0 0 0 0 0 0 0 0 0 0 0 0 0 0 0 0 0 0 0 5 7 2 0 0 0 0 0
0 0 0 0 0 0 0 0 0 0 0 0 0 0 0 0 0 0 0 0 0 0 0 0 0 6 7 5 1 0 0 0 0
0 0 0 0 0 0 0 0 0 0 0 0 0 0 0 0 0 0 0 0 0 0 0 0 0 0 1 5 3 0 0 0 0
0 0 0 0 0 0 0 0 0 0 0 0 0 0 0 0 0 0 0 0 0 0 0 0 0 0 0 0 0 0 0 0 0
4 0 0 0 0 0 0 0 0 0 0 0 0 0 0 0 0 0 0 0 0 0 0 0 0 0 0 0 0 0 0 0 0
0 11 0 0 0 0 0 0 0 0 0 0 0 0 0 0 0 0 0 0 0 0 0 0 0 0 0 0 0 0 0 0 0
0 0 0 0 0 0 0 0 0 0 0 0 0 0 0 0 0 0 0 0 0 0 0 0 0 0 0 0 0 0 0 0 0
0 0 0 0 0 0 0 0 0 0 0 0 0 0 0 0 0 0 0 0 0 0 0 0 0 0 0 0 0 0 0 0 0

GFSFLT1_con_sbcape_051.txt.gz
CAPE
433 113 15 0 0 0 0 0 0 0 0 0 0 0 0 0 0 0 0 14 156 182 175 163 128 88 283 308 189 285 429 562 112
142 74 3 0 0 0 0 0 0 0 0 0 0 0 0 0 0 0 0 3 80 71 60 58 40 19 61 64 232 274 328 569 286
56 63 24 0 0 0 1 0 0 0 0 0 0 0 0 0 0 0 0 65 22 0 6 0 0 0 4 2 24 69 83 211 340
72 63 44 13 2 1 0 0 0 0 0 0 0 0 0 0 0 0 0 5 8 12 2 3 1 1 2 3 0 0 16 7 16
62 70 70 42 50 43 3 0 0 0 0 0 0 0 0 0 0 0 0 0 126 30 8 2 4 2 1 2 1 0 1 1 4
30 15 31 96 154 72 8 0 0 0 0 0 0 0 0 0 0 0 0 13 168 29 9 2 1 1 1 2 2 4 5 5 4
12 13 37 107 167 95 23 3 0 0 0 0 0 0 0 0 0 0 0 236 215 34 0 0 0 0 0 2 1 3 4 6 5
1 1 25 39 83 49 23 3 0 0 0 0 0 0 0 0 0 9 156 407 144 30 1 0 0 0 0 1 1 3 2 2 2
0 0 0 13 42 37 1 0 0 0 0 0 0 0 0 0 0 9 223 325 154 46 2 0 0 0 0 1 1 1 0 1 2
0 0 0 0 2 11 0 0 0 0 0 0 0 0 0 0 0 2 86 145 176 80 0 0 2 0 0 0 1 2 0 1 2
0 0 0 0 0 0 0 0 0 0 0 0 0 0 0 0 0 0 1 46 140 100 1 1 3 4 1 2 1 2 2 1 2
0 0 0 0 0 0 0 0 0 0 0 0 0 0 0 0 0 0 0 0 41 79 18 10 3 7 7 5 5 4 4 1 1
0 0 0 0 0 0 0 0 0 0 0 0 0 0 0 0 0 0 0 0 0 2 87 94 9 7 12 11 11 5 6 3 1
0 0 0 0 0 0 0 0 0 0 0 0 0 0 0 0 0 0 0 0 0 0 0 17 29 18 7 15 15 10 4 1 0
0 0 0 0 0 0 0 0 0 0 0 0 0 0 0 0 0 0 0 0 0 0 0 0 0 0 14 10 19 17 9 2 0
0 0 0 0 0 0 0 0 0 0 0 0 0 0 0 0 0 0 0 0 0 0 0 0 0 0 0 12 14 21 19 9 1
0 0 0 0 0 0 0 0 0 0 0 0 0 0 0 0 0 0 0 0 0 0 0 0 0 0 0 0 3 11 8 18 4
0 0 0 0 0 0 0 0 0 0 0 0 0 0 0 0 0 0 0 0 0 0 0 0 0 0 0 0 0 0 15 14 16
0 0 0 0 0 0 0 0 0 0 0 0 0 0 0 0 0 0 0 0 0 0 0 0 0 0 0 0 0 0 0 32 10
0 0 0 0 0 0 0 0 0 0 0 0 0 0 0 0 0 0 0 0 0 0 0 0 0 0 0 0 0 0 5 0 3

GFSFLT1_con_sbcape_054.txt.gz
CAPE
322 90 0 0 0 0 1 1 0 0 0 0 0 0 0 0 0 0 1 7 232 218 187 145 132 123 337 298 233 336 586 493 0
226 86 0 0 0 0 0 0 0 0 0 0 0 0 0 0 0 0 0 2 123 98 56 28 19 6 67 68 181 226 532 459 90
176 86 29 0 0 0 0 0 0 0 0 0 0 0 0 0 0 0 0 9 0 2 1 3 2 1 2 1 8 21 85 374 500
128 96 57 29 0 1 0 0 0 0 0 0 0 0 0 0 0 0 0 0 1 6 4 4 1 1 1 1 0 0 8 23 37
114 74 65 53 46 45 21 0 0 0 0 0 0 0 0 0 0 0 0 0 117 13 3 3 2 0 0 1 0 0 2 11 2
22 21 38 84 114 78 25 9 0 0 0 0 0 0 0 0 0 0 0 0 221 70 1 0 0 0 0 0 1 3 4 2 2
12 9 22 62 136 77 22 8 1 0 0 0 0 0 0 0 0 0 0 10 339 85 0 0 0 0 0 0 0 3 4 5 6
0 0 9 18 47 35 20 1 0 0 0 0 0 0 0 0 0 0 34 75 362 69 17 0 0 0 0 0 0 1 2 1 1
0 0 0 0 3 16 0 0 0 0 0 0 0 0 0 0 0 0 29 241 253 92 24 0 0 0 0 0 0 0 0 0 2
0 0 0 0 0 0 0 0 0 0 0 0 0 0 0 0 0 0 12 144 281 137 76 0 0 0 0 1 1 2 0 0 1
0 0 0 0 0 0 0 0 0 0 0 0 0 0 0 0 0 0 0 35 123 232 82 17 3 6 3 2 3 5 4 2 3
0 0 0 0 0 0 0 0 0 0 0 0 0 0 0 0 0 0 0 0 16 111 92 44 27 10 8 9 9 8 9 6 5
0 0 0 0 0 0 0 0 0 0 0 0 0 0 0 0 0 0 0 0 0 7 144 184 84 34 8 9 13 12 9 9 6
0 0 0 0 0 0 0 0 0 0 0 0 0 0 0 0 0 0 0 0 0 0 0 25 72 116 15 12 19 17 12 12 9
0 0 0 0 0 0 0 0 0 0 0 0 0 0 0 0 0 0 0 0 0 0 0 0 0 0 92 4 16 20 18 13 7
0 0 0 0 0 0 0 0 0 0 0 0 0 0 0 0 0 0 0 0 0 0 0 0 0 0 11 94 4 16 27 25 16
0 0 0 0 0 0 0 0 0 0 0 0 0 0 0 0 0 0 0 0 0 0 0 0 0 0 0 0 57 42 26 47 37
0 0 0 0 0 0 0 0 0 0 0 0 0 0 0 0 0 0 0 0 0 0 0 0 0 0 0 0 0 8 79 51 60
0 0 1 1 0 0 0 0 0 0 0 0 0 0 0 0 0 0 0 0 0 0 0 0 0 0 0 0 0 0 26 51 55
0 0 0 0 1 0 0 0 1 0 0 0 0 0 0 0 0 0 0 0 0 0 0 0 0 0 0 0 0 0 4 48 65

GFSFLT1_con_sbcape_057.txt.gz
CAPE
276 5 0 0 1 0 0 1 0 0 0 0 0 0 0 0 0 56 110 182 206 158 94 97 79 124 233 282 288 463 455 0 0
240 20 0 0 0 1 0 0 0 0 0 0 0 0 0 0 0 0 124 129 69 12 9 6 1 0 0 12 69 122 377 250 202
125 55 21 0 0 3 1 0 0 0 0 0 0 0 0 0 0 0 28 37 0 1 5 6 4 2 2 2 1 8 28 237 398
157 104 50 23 7 27 26 0 0 0 0 0 0 0 0 0 0 0 0 0 8 0 0 1 1 0 0 0 0 0 0 2 12
147 51 74 39 30 32 13 0 0 0 0 0 0 0 0 0 0 0 0 0 96 6 0 0 0 0 0 0 0 0 0 3 5
52 22 30 59 66 51 15 0 0 0 0 0 0 0 0 0 0 0 0 0 153 44 0 0 0 0 0 0 0 1 1 2 1
26 17 15 50 102 67 17 6 0 0 0 0 0 0 0 0 0 0 0 0 75 73 0 0 0 0 0 0 0 1 2 4 4
22 16 25 44 41 83 28 3 0 0 0 0 0 0 0 0 0 0 0 32 181 54 16 0 0 0 0 0 0 0 0 1 0
0 0 7 24 39 57 46 12 0 0 0 0 0 0 0 0 0 0 0 46 244 117 25 9 0 0 0 0 0 0 0 0 2
0 0 0 2 13 19 28 12 0 0 0 0 0 0 0 0 0 0 0 7 287 295 82 56 2 0 0 0 0 0 0 0 1
0 0 0 0 0 0 3 0 0 0 0 0 0 0 0 0 0 0 0 0 64 211 153 86 19 11 6 3 3 4 2 1 3
0 0 0 0 0 0 0 0 0 0 0 0 0 0 0 0 0 0 0 0 0 45 189 121 65 24 11 11 4 7 6 6 5
0 0 0 0 0 0 0 0 0 0 0 0 0 0 0 0 0 0 0 0 0 0 71 222 188 111 62 15 16 8 6 8 8
0 0 0 0 0 0 0 0 0 0 0 0 0 0 0 0 0 0 0 0 0 0 0 27 126 262 133 68 22 23 17 4 9
0 0 0 0 0 0 0 0 0 0 0 0 0 0 0 0 0 0 0 0 0 0 0 0 15 2 159 103 60 41 29 28 10
0 0 0 0 0 0 0 0 0 0 0 0 0 0 0 0 0 0 0 0 0 0 0 0 0 0 4 201 140 76 64 51 36
0 0 0 0 0 0 0 0 0 0 0 0 0 0 0 0 0 0 0 0 0 0 0 0 0 0 0 0 150 196 102 91 90
2 3 2 1 0 0 0 0 2 3 0 0 9 1 3 0 0 0 0 0 0 0 0 0 0 0 0 0 0 3 161 104 89
0 1 3 6 3 1 0 0 1 2 2 1 0 0 0 0 0 0 0 0 0 0 0 0 0 0 0 0 0 0 1 83 121
0 0 0 0 0 1 2 1 2 1 2 0 0 1 0 0 0 1 2 0 0 0 0 0 0 0 0 0 0 0 0 1 90

GFSFLT1_con_sbcape_060.txt.gz
CAPE
77 0 0 1 1 3 2 1 0 0 0 0 0 0 0 0 6 22 61 69 51 37 5 1 3 20 37 84 200 323 10 0 0
84 0 0 2 2 0 2 2 0 0 0 0 0 0 0 0 0 1 7 12 0 0 0 4 0 0 0 0 2 78 344 376 393
124 54 7 0 23 1 0 0 0 0 0 0 37 0 0 0 0 0 0 0 1 0 1 0 0 0 0 0 0 0 2 67 261
157 90 52 10 28 31 5 0 0 0 0 0 17 0 0 0 0 0 0 2 9 0 0 0 0 0 0 0 0 0 0 0 0
176 80 80 41 42 41 5 0 0 0 0 0 0 0 0 0 0 0 0 0 80 0 0 0 0 0 0 0 0 0 0 1 2
46 22 38 58 46 33 7 0 0 0 0 0 0 0 0 0 0 0 0 0 33 55 0 0 0 0 0 0 0 0 1 2 4
8 22 15 45 75 46 6 0 0 0 0 0 0 0 0 0 0 0 0 0 7 199 4 0 0 0 0 0 0 0 0 0 4
0 2 7 31 21 47 21 9 0 0 0 0 0 0 0 0 0 0 0 0 30 93 26 0 0 0 0 0 0 0 0 0 0
0 0 0 3 3 8 27 13 6 0 0 0 0 0 0 0 0 0 0 0 69 233 96 16 0 0 0 0 0 0 0 0 0
0 0 0 0 0 0 0 6 0 0 0 0 0 0 0 0 0 0 0 0 25 418 298 87 22 0 0 0 0 0 0 0 0
24 0 0 0 0 0 0 18 20 10 0 0 0 0 0 0 0 0 0 0 0 145 374 210 121 19 5 3 4 3 2 0 3
35 19 0 0 0 0 0 0 2 16 17 17 0 0 0 0 0 0 0 0 0 1 212 304 180 52 18 21 12 6 4 4 4
59 37 20 0 0 0 1 4 22 36 31 39 52 29 5 4 3 1 0 0 0 0 10 212 283 191 146 86 37 22 10 5 0
70 95 84 68 57 50 54 61 60 126 133 109 62 51 48 58 41 50 33 0 0 0 0 6 71 259 273 198 138 47 36 13 4
162 201 192 146 149 159 159 127 170 175 174 74 28 51 83 97 64 68 49 23 0 0 0 0 0 1 133 251 211 132 69 46 15
163 238 267 297 288 246 207 230 181 175 159 59 72 134 53 30 26 26 7 0 0 0 0 0 0 0 37 135 231 233 176 122 121
279 336 406 390 341 312 281 279 177 101 125 78 77 32 2 10 0 0 0 0 0 0 0 0 0 0 0 0 67 212 292 185 176
134 192 271 323 290 148 300 233 127 86 141 16 91 72 19 17 10 0 0 0 0 0 0 0 0 0 0 0 0 0 58 212 251
0 0 1 8 7 5 7 8 9 18 9 0 1 12 3 10 18 7 0 0 0 0 0 0 0 0 0 0 0 0 0 1 93
0 0 0 0 0 0 3 2 4 10 15 19 0 1 4 1 3 2 18 6 0 0 0 0 0 0 0 0 0 0 0 0 0

GFSFLT1_con_sbcape_063.txt.gz
CAPE
0 0 3 4 5 6 5 4 2 0 0 1 0 0 0 0 3 10 56 8 7 2 1 1 0 0 0 3 77 350 226 147 237
0 0 2 2 4 6 5 2 0 0 0 0 0 0 0 0 0 0 2 0 0 1 2 1 0 0 0 0 1 11 154 333 344
46 0 0 2 1 0 0 0 0 0 0 0 0 0 0 0 0 0 0 0 0 0 0 0 0 0 0 0 0 0 0 2 50
101 53 19 18 37 15 0 0 0 0 0 24 0 0 0 0 0 0 0 25 0 0 0 0 0 0 0 0 0 0 0 0 0
176 93 66 30 46 29 4 0 0 0 0 0 0 0 0 0 0 0 0 0 28 0 0 0 0 0 0 0 0 0 0 0 0
20 24 54 51 38 25 3 0 0 0 0 0 0 0 0 0 0 0 0 0 0 51 0 0 0 0 0 0 0 0 2 1 1
10 22 15 36 51 32 5 0 0 0 0 0 0 0 0 0 0 0 0 0 0 45 13 0 0 0 0 0 0 0 1 1 1
0 0 0 6 20 14 2 0 0 0 0 0 0 0 0 0 0 0 0 0 2 145 16 0 0 0 0 0 0 0 0 0 0
0 0 0 0 0 0 10 9 0 0 0 0 0 0 0 0 0 0 0 0 0 166 67 9 0 0 0 0 0 0 0 0 0
16 0 0 0 0 0 0 0 0 0 0 0 0 0 0 0 0 0 0 0 0 34 373 137 47 0 0 0 0 0 0 0 0
33 0 0 0 0 0 0 0 15 13 1 0 0 0 0 0 0 0 0 0 0 0 186 377 138 80 14 10 5 3 2 0 0
37 9 0 0 0 0 0 0 0 17 20 19 16 4 1 0 0 0 0 0 0 0 0 88 153 118 76 44 27 9 6 6 1
102 50 41 43 39 11 10 4 25 39 35 36 31 25 26 30 35 42 28 0 0 0 0 3 78 121 126 116 79 55 1 0 0
193 219 183 154 175 153 132 116 129 129 124 23 142 145 154 135 113 98 121 82 15 0 0 0 25 179 262 147 164 158 129 17 0
264 276 276 278 296 156 135 130 164 170 184 49 124 197 171 180 201 123 38 45 81 6 0 0 0 0 35 123 205 166 181 159 53
415 434 365 254 238 236 218 221 101 141 391 212 198 165 151 151 75 11 0 6 1 0 0 0 0 0 0 102 113 238 239 206 212
447 444 384 356 380 299 309 191 214 216 293 137 144 68 2 0 55 1 0 0 0 0 0 0 0 0 0 0 59 99 228 265 254
491 412 347 411 436 419 349 200 181 117 51 59 61 67 33 26 10 8 0 0 0 0 0 0 0 0 0 0 0 0 0 17 212
0 7 26 94 32 2 2 3 11 28 40 8 4 25 7 24 23 24 3 0 0 0 0 0 0 0 0 0 0 0 0 0 2
0 0 0 0 0 0 0 1 4 9 11 23 19 8 21 14 24 11 16 41 0 0 0 0 0 0 0 0 0 0 0 0 0

GFSFLT1_con_sbcape_066.txt.gz
CAPE
1 3 5 8 10 8 4 1 0 0 0 0 0 0 0 0 0 0 0 0 1 3 0 0 0 0 0 3 8 240 326 362 366
0 3 2 2 2 2 1 0 0 0 0 0 0 0 0 0 0 0 0 0 0 0 0 0 0 0 0 0 2 6 8 75 197
0 1 2 0 0 0 0 0 0 0 4 11 0 0 0 0 0 0 0 9 0 0 0 0 0 0 0 0 0 0 0 2 6
53 0 9 27 0 0 0 0 0 0 2 14 0 0 0 0 0 0 0 41 5 0 0 0 0 0 0 0 0 0 0 0 1
130 68 44 38 35 14 0 0 0 0 0 0 0 0 0 0 0 0 0 1 37 0 0 0 0 0 0 0 0 0 0 1 3
8 34 43 58 42 13 4 0 0 0 0 0 0 0 0 0 0 0 0 0 0 50 0 0 0 0 0 0 0 0 0 0 3
22 12 37 62 62 28 8 0 0 0 0 0 0 0 0 0 0 0 0 0 0 19 27 0 0 0 0 0 0 0 0 0 0
0 0 1 5 31 5 4 1 0 0 0 0 0 0 0 0 0 0 0 0 0 13 41 0 0 0 0 0 0 0 0 0 0
0 0 0 0 0 0 0 0 0 0 0 0 0 0 0 0 0 0 0 0 0 36 49 21 0 0 0 0 0 0 0 0 0
0 0 0 0 0 0 0 0 0 0 0 0 0 0 0 0 0 0 0 0 0 0 214 204 47 0 0 0 0 0 0 0 0
12 0 0 0 0 0 0 0 0 0 0 0 0 0 0 0 0 0 0 0 0 0 0 310 366 135 8 2 2 0 0 0 0
7 0 0 0 0 0 0 0 0 0 0 0 0 0 0 0 0 0 0 0 0 0 0 0 49 76 152 65 41 0 0 0 0
10 0 0 0 0 0 0 0 0 0 0 0 0 0 0 0 0 0 0 0 0 0 0 0 0 54 90 149 138 139 10 0 0
41 62 18 13 19 9 0 0 0 0 0 2 0 3 3 4 2 0 0 0 1 0 0 0 0 64 85 85 144 167 166 65 2
91 112 137 91 127 44 23 4 4 4 5 8 3 6 1 0 0 0 0 0 0 1 0 0 0 0 16 33 70 90 185 202 131
184 229 255 123 140 89 53 3 7 8 9 51 2 0 0 0 0 0 0 0 0 0 0 0 0 0 4 53 71 79 115 207 146
332 293 281 233 255 245 198 207 139 57 69 57 26 18 4 1 0 0 0 0 0 0 0 0 0 0 0 0 34 75 103 121 189
333 278 248 261 291 344 321 126 111 136 33 38 52 41 23 3 0 0 0 0 0 0 0 0 0 0 0 0 0 0 0 0 2
0 0 15 96 64 31 5 5 1 13 16 11 12 36 63 48 7 0 0 0 0 0 0 0 0 0 0 0 0 0 0 0 0
0 0 0 0 0 0 0 0 0 0 0 0 3 10 17 23 29 16 0 0 0 0 0 0 0 0 0 0 0 0 0 0 0

GFSFLT1_con_sbcape_069.txt.gz
CAPE
4 5 10 19 16 8 3 0 0 0 0 0 0 0 0 0 0 0 0 0 1 0 0 0 0 0 1 3 7 43 187 232 322
4 6 7 8 8 4 1 0 0 0 0 0 0 0 0 0 0 0 0 0 0 0 0 0 0 0 0 1 3 5 5 50 95
1 2 4 4 3 1 0 0 0 24 36 0 0 0 0 0 0 0 0 22 3 7 0 0 0 0 0 0 0 0 2 4 4
0 7 0 0 0 0 0 0 0 1 30 1 0 0 0 0 0 0 0 26 12 5 0 0 0 0 0 0 0 0 0 0 2
56 32 59 26 11 9 7 7 0 0 0 0 0 0 0 0 0 0 0 38 16 2 0 0 0 0 0 0 0 1 1 1 2
0 0 26 50 29 14 5 0 0 0 0 0 0 0 0 0 0 0 0 0 0 13 0 0 0 0 0 0 0 0 0 0 2
0 0 11 40 33 16 9 0 0 0 0 0 0 0 0 0 0 0 0 0 0 0 3 0 0 0 0 0 0 0 0 0 0
0 0 0 0 0 0 0 0 0 0 0 0 0 0 0 0 0 0 0 0 0 0 111 0 0 0 0 0 0 0 0 0 0
0 0 0 0 0 0 0 0 0 0 0 0 0 0 0 0 0 0 0 0 0 0 52 15 0 0 0 0 0 0 0 0 0
0 0 0 0 0 0 0 0 0 0 0 0 0 0 0 0 0 0 0 0 0 0 13 150 77 4 0 0 0 0 0 0 0
0 0 0 0 0 0 0 0 0 0 0 0 0 0 0 0 0 0 0 0 0 0 0 6 179 180 41 1 0 0 0 0 0
0 0 0 0 0 0 0 0 0 0 0 0 0 0 0 0 0 0 0 0 0 0 0 0 5 89 160 137 133 13 0 0 0
0 0 0 0 0 0 0 0 0 0 0 0 0 0 0 0 0 0 0 0 0 0 0 6 4 23 94 129 141 132 112 1 0
2 0 0 0 0 0 0 0 0 0 0 0 2 3 3 4 3 2 0 0 0 0 0 2 0 29 44 56 71 154 155 146 87
12 17 13 0 0 12 0 0 1 1 8 11 12 9 4 0 0 0 0 0 0 0 0 0 0 0 28 32 76 95 116 211 127
31 38 30 49 50 7 1 0 3 6 11 17 7 0 1 6 0 0 0 0 0 0 0 0 0 0 0 19 57 87 95 130 167
103 120 146 142 138 115 82 71 161 95 20 33 32 15 0 0 2 0 0 0 0 0 0 0 0 0 0 0 3 15 25 24 17
279 266 256 258 263 263 269 174 161 116 18 21 41 26 11 0 0 0 0 0 0 0 0 0 0 0 0 0 0 0 0 1 0
0 0 9 51 41 18 5 3 0 0 1 0 0 13 7 22 3 0 0 0 0 0 0 0 0 0 0 0 0 0 0 0 0
0 0 0 0 0 0 0 0 0 0 0 0 0 0 0 0 6 1 0 0 0 0 0 0 0 0 0 0 0 0 0 0 1

GFSFLT1_con_sbcape_072.txt.gz
CAPE
12 11 14 12 6 2 1 0 0 0 0 0 0 0 3 0 0 0 0 0 0 0 0 0 0 0 5 5 4 6 60 138 146
11 10 7 6 7 3 0 0 0 0 0 0 0 0 0 0 0 0 0 0 9 0 0 0 0 0 0 1 3 5 3 3 27
8 8 9 9 7 6 0 0 40 42 16 0 0 0 0 0 0 0 0 22 22 7 0 0 0 0 0 0 0 1 4 3 2
4 7 7 6 2 18 18 1 15 45 23 0 0 0 0 0 0 0 0 26 13 12 0 0 0 0 0 0 0 0 1 3 7
59 78 53 17 7 8 10 7 0 0 0 0 0 0 0 0 0 0 0 31 5 0 0 0 0 0 0 0 0 0 2 2 5
0 0 30 42 19 8 7 6 0 0 0 0 0 0 0 0 0 0 0 0 4 3 0 0 0 0 0 0 0 0 0 2 2
0 0 2 40 34 20 3 0 0 0 0 0 0 0 0 0 0 0 0 0 0 16 7 0 0 0 0 0 0 0 0 0 0
0 0 0 0 0 0 0 0 0 0 0 0 0 0 0 0 0 0 0 0 0 0 39 0 0 0 0 0 0 0 0 0 0
0 0 0 0 0 0 0 0 0 0 0 0 0 0 0 0 0 0 0 0 0 0 59 52 0 0 0 0 0 0 0 0 0
0 0 0 0 0 0 0 0 0 0 0 0 0 0 0 0 0 0 0 0 0 0 0 69 124 23 0 0 0 0 0 0 0
0 0 0 0 0 0 0 0 0 0 0 0 0 0 0 0 0 0 0 0 0 0 0 0 34 162 119 41 0 0 0 0 0
0 0 0 0 0 0 0 0 0 0 0 0 0 0 0 0 0 0 0 0 0 0 0 2 5 46 106 165 112 85 3 0 0
0 0 0 0 0 0 0 0 0 0 0 0 0 0 0 0 0 0 0 0 0 0 3 38 73 62 64 94 170 155 131 106 20
0 0 0 0 0 0 0 0 0 0 0 1 1 1 2 10 5 8 1 0 0 0 0 3 24 59 47 47 47 82 145 143 132
0 4 0 0 0 0 0 0 1 0 3 6 12 11 1 0 0 0 0 0 0 0 0 0 0 0 26 33 46 82 94 108 103
10 9 20 20 26 43 12 10 13 8 5 16 11 0 0 0 0 0 0 0 0 0 0 0 0 0 0 1 30 78 112 103 76
37 34 51 50 74 87 71 62 64 22 13 19 14 0 0 0 0 0 0 0 0 0 0 0 0 0 0 0 0 1 0 2 1
148 91 120 235 288 250 231 177 194 127 14 8 25 11 4 0 0 0 0 0 0 0 0 0 0 0 0 0 0 0 0 0 0
205 212 208 185 103 84 11 2 3 0 0 0 0 0 1 31 9 0 0 0 0 0 0 0 0 0 0 0 0 0 0 0 1
0 0 0 0 0 0 0 0 0 0 0 0 0 0 0 0 2 1 0 0 0 0 0 0 0 0 0 0 0 0 0 0 1

GFSFLT1_con_sbcape_075.txt.gz
CAPE
8 10 2 5 3 1 0 0 0 0 43 54 80 22 0 0 0 0 0 0 0 0 0 0 0 1 6 9 5 7 52 155 140
10 3 1 4 1 0 0 0 0 0 0 0 19 12 0 0 0 0 0 0 4 0 0 0 0 0 0 2 5 7 2 6 32
6 8 5 5 1 0 0 0 0 0 0 0 0 0 0 0 0 0 0 24 21 0 0 0 0 0 0 0 0 1 4 5 4
11 4 10 22 24 5 0 8 25 19 0 0 0 0 0 0 0 0 0 2 3 0 0 0 0 0 0 0 0 0 2 2 5
53 77 86 38 29 27 16 7 0 0 0 0 0 0 0 0 0 0 0 0 0 0 0 0 0 0 0 0 0 0 0 2 5
16 0 14 34 20 14 15 9 0 0 0 0 0 0 0 0 0 0 0 0 0 0 0 0 0 0 0 0 0 0 0 1 1
0 0 0 39 26 11 0 0 0 0 0 0 0 0 0 0 0 0 0 0 0 0 3 0 0 0 0 0 0 0 0 0 0
0 0 0 0 0 0 0 0 0 0 0 0 0 0 0 0 0 0 0 0 0 0 0 0 0 0 0 0 0 0 0 0 0
0 0 0 0 0 0 0 0 0 0 0 0 0 0 0 0 0 0 0 0 0 0 0 101 0 0 0 0 0 0 0 0 0
0 0 0 0 0 0 0 0 0 0 0 0 0 0 0 0 0 0 0 0 0 0 0 76 114 62 10 0 0 0 0 0 0
0 0 0 0 0 0 0 0 0 0 0 0 0 0 0 0 0 0 0 0 0 0 0 1 53 185 155 121 31 0 0 0 0
0 0 0 0 0 0 0 0 0 0 0 0 0 0 0 0 0 0 0 0 0 0 0 14 23 39 84 122 102 97 69 32 9
0 0 0 0 0 0 0 0 0 0 0 0 0 0 0 0 1 1 0 0 0 0 0 25 104 144 99 104 102 115 112 76 93
0 0 0 0 0 0 0 0 0 0 0 0 0 1 2 1 4 4 1 1 0 0 0 0 21 81 77 49 50 57 96 58 60
0 0 0 0 0 0 0 0 0 0 1 4 4 7 0 0 0 0 0 0 0 0 0 0 0 6 23 42 48 62 95 92 55
0 0 0 0 0 6 5 19 27 28 5 24 6 0 0 0 0 0 0 0 0 0 0 0 0 0 12 21 39 60 82 20 13
5 0 7 16 25 48 44 56 100 80 14 17 0 0 0 0 0 0 0 0 0 0 0 0 0 0 0 0 0 0 0 0 0
52 20 24 52 106 163 148 141 126 135 16 5 16 9 0 0 0 0 0 0 0 0 0 0 0 0 0 0 0 0 0 0 1
132 89 97 215 224 223 125 52 48 15 13 0 0 0 2 15 0 0 0 0 0 0 0 0 0 0 0 0 0 0 0 3 14
0 0 0 0 0 0 0 0 0 0 0 0 0 0 0 0 5 0 0 0 0 0 0 0 0 0 0 0 0 0 0 1 1

GFSFLT1_con_sbcape_078.txt.gz
CAPE
97 7 7 7 4 31 48 0 0 57 497 90 53 20 0 0 0 0 0 0 0 0 0 0 0 1 4 6 3 2 3 74 120
5 6 7 7 4 9 10 0 0 0 51 81 37 0 0 0 0 0 0 0 0 0 0 0 0 0 0 2 3 6 6 2 8
9 4 6 5 2 0 0 0 0 13 0 7 7 0 0 0 0 0 0 25 3 0 0 0 0 0 0 0 1 1 2 4 4
7 5 5 32 15 19 23 25 22 8 0 0 0 0 0 0 0 0 0 0 3 0 0 0 0 0 0 0 0 0 1 3 3
11 39 65 52 44 18 7 7 13 0 0 0 0 0 0 0 0 0 0 0 0 0 0 0 0 0 0 0 0 0 0 1 2
4 0 40 52 27 17 12 1 0 0 0 0 0 0 0 0 0 0 0 0 0 0 0 0 0 0 0 0 0 0 0 0 1
0 0 0 14 12 5 0 0 0 0 0 0 0 0 0 0 0 0 0 0 0 0 1 0 0 0 0 0 0 0 0 0 0
0 0 0 0 0 0 0 0 0 0 0 0 0 0 0 0 0 0 0 0 0 0 0 0 0 0 0 0 0 0 0 0 0
0 0 0 0 0 0 0 0 0 0 0 0 0 0 0 0 0 0 0 0 0 0 0 0 93 0 0 0 0 0 0 0 0
0 0 0 0 0 0 0 0 0 0 0 0 0 0 0 0 0 0 0 0 0 0 0 8 142 99 48 8 0 0 0 0 0
0 0 0 0 0 0 0 0 0 0 0 0 0 0 0 0 0 0 0 0 0 0 0 1 23 151 163 107 99 53 22 1 0
0 0 0 0 0 0 0 0 0 0 0 0 0 0 0 0 0 0 0 0 0 0 2 3 21 66 91 104 122 106 91 96 56
0 0 0 0 0 0 0 0 0 0 0 0 0 0 0 0 0 0 0 0 0 0 4 12 31 86 90 108 103 103 90 87 123
0 0 0 0 0 0 0 0 0 0 0 0 0 0 0 0 0 0 0 0 0 0 0 0 3 45 109 75 69 67 81 80 83
0 0 0 0 0 0 0 0 0 0 0 1 7 5 0 0 0 0 0 0 0 0 0 0 0 2 69 54 54 55 69 72 63
0 0 0 0 0 0 0 0 1 30 22 47 7 0 0 0 0 0 0 0 0 0 0 0 0 0 16 16 39 46 12 4 0
12 6 0 0 0 0 4 31 67 70 34 80 0 0 0 0 0 0 0 0 0 0 0 0 0 0 0 1 2 3 0 0 0
52 16 3 0 0 39 48 49 106 184 4 0 5 3 0 0 0 0 0 0 0 0 0 0 0 0 0 0 0 0 0 0 5
16 11 5 7 109 188 106 68 107 102 76 0 0 0 0 9 0 0 0 0 0 0 0 0 0 0 0 0 0 0 1 0 1
0 1 3 5 0 0 5 0 0 0 0 0 0 0 0 0 0 0 0 0 0 0 0 0 0 0 0 0 0 0 0 0 2

GFSFLT1_con_sbcape_081.txt.gz
CAPE
10 9 32 93 94 26 2 38 275 442 295 57 26 0 0 0 0 0 0 0 0 0 0 0 0 1 3 3 2 0 0 0 0
11 9 7 6 72 49 0 37 53 155 185 63 0 0 0 0 0 0 1 2 0 0 0 0 0 0 0 0 1 2 2 1 0
9 9 6 7 75 50 17 30 23 22 64 41 0 0 0 0 0 0 5 12 4 0 0 0 0 0 0 0 0 0 1 2 2
13 13 8 33 52 45 34 27 15 10 0 0 0 0 0 0 0 0 0 0 4 0 0 0 0 0 0 0 0 0 1 2 2
63 69 91 52 36 36 42 35 16 0 0 0 0 0 0 0 0 0 0 0 0 0 0 0 0 0 0 0 0 0 0 0 2
7 2 49 92 53 20 14 0 0 0 0 0 0 0 0 0 0 0 0 0 0 0 0 0 0 0 0 0 0 0 0 0 0
1 0 5 58 34 20 6 0 0 0 0 0 0 0 0 0 0 0 0 0 0 0 0 0 0 0 0 0 0 0 0 0 0
22 36 25 27 0 0 0 0 0 0 0 0 0 0 0 0 0 0 0 0 0 0 0 0 0 0 0 0 0 0 0 0 0
0 0 2 0 0 0 0 0 0 0 0 0 0 0 0 0 0 0 0 0 0 0 0 0 82 6 0 0 0 0 0 0 0
0 0 0 0 0 0 0 0 0 0 0 0 0 0 0 0 0 0 0 0 0 0 0 1 90 102 57 25 0 0 0 0 0
4 7 0 0 0 0 0 0 0 0 0 0 0 0 0 0 0 0 0 0 0 0 6 7 23 56 138 102 102 87 43 15 2
19 23 20 1 0 0 0 0 0 0 0 0 0 0 0 0 0 0 0 0 0 0 2 10 19 38 71 107 101 89 117 113 80
28 27 33 1 0 0 0 0 0 0 0 0 0 0 0 0 0 0 0 0 0 0 0 7 29 53 64 89 97 80 81 95 82
18 17 14 0 0 0 0 0 0 0 0 0 0 0 0 0 0 0 0 0 0 0 0 0 0 19 41 59 93 62 66 68 64
0 0 0 0 0 0 0 0 0 0 3 0 24 46 22 0 3 0 0 0 0 0 0 0 6 0 3 50 40 55 76 67 63
0 0 0 0 0 0 0 0 0 5 17 65 73 12 0 0 0 0 0 0 0 0 0 0 0 0 0 12 24 58 39 24 8
27 7 0 0 6 5 7 22 86 65 63 163 10 16 0 0 0 0 0 0 0 0 0 0 0 0 0 6 17 23 11 10 7
19 13 32 4 22 45 86 119 165 198 21 23 72 8 1 0 0 0 0 0 0 0 0 0 0 0 0 0 0 2 12 11 11
7 11 19 12 8 13 51 92 124 165 267 3 9 12 34 12 4 0 0 0 0 0 0 0 0 0 0 0 0 0 9 11 14
19 33 14 1 1 1 1 16 1 14 49 40 0 0 0 1 2 0 0 0 0 0 0 0 0 0 0 0 0 0 11 9 13

GFSFLT1_con_sbcape_084.txt.gz
CAPE
30 205 277 299 225 15 77 209 335 519 69 18 0 0 0 0 0 0 0 0 0 0 0 0 0 0 0 0 0 0 0 0 0
25 14 109 146 109 51 91 299 157 103 58 1 0 0 0 0 0 2 6 5 1 0 0 0 0 0 0 0 0 0 0 0 0
10 10 64 112 36 47 41 40 98 115 54 0 0 0 0 0 0 1 5 6 3 0 0 0 0 0 0 0 0 0 0 0 2
5 4 51 89 52 44 32 22 11 15 22 0 0 0 0 0 0 0 0 0 3 0 0 0 0 0 0 0 0 0 0 1 2
46 4 6 119 97 60 38 27 13 0 0 0 0 0 0 0 0 0 0 0 0 0 0 0 0 0 0 0 0 0 0 0 0
8 5 7 93 72 51 46 32 7 0 0 0 0 0 0 0 0 0 0 0 0 0 0 0 0 0 0 0 0 0 0 0 0
3 6 46 102 87 57 18 1 0 0 0 0 0 0 0 0 0 0 0 0 0 0 0 0 0 0 0 0 0 0 0 0 0
5 36 47 22 0 0 0 0 0 0 0 0 0 0 0 0 0 0 0 0 0 0 0 13 0 0 0 0 0 0 0 0 0
2 3 0 0 0 0 0 0 0 0 0 0 0 0 0 0 0 0 0 0 0 0 0 0 95 49 0 0 0 0 0 0 0
0 0 0 0 0 0 0 0 0 0 0 0 0 0 0 0 0 0 0 0 0 0 0 1 18 156 74 60 25 0 0 0 0
0 0 0 0 0 0 0 0 0 0 0 0 0 0 0 0 0 0 0 0 0 0 1 10 19 41 104 119 109 84 50 37 10
46 28 68 52 16 0 0 0 0 3 0 0 0 0 3 2 1 3 5 3 0 0 0 7 20 27 56 90 101 107 97 123 120
136 151 149 101 26 7 1 0 0 0 0 0 0 1 5 35 9 14 11 7 1 0 0 0 14 43 61 127 123 72 98 93 113
186 114 119 122 39 21 10 13 0 0 0 0 13 33 45 54 10 12 15 9 0 1 0 0 0 0 25 62 92 73 68 85 86
304 100 110 99 55 17 19 4 0 0 6 31 35 82 58 41 62 40 4 1 0 0 0 0 3 0 0 17 69 41 60 77 66
196 78 104 73 62 59 28 7 0 7 69 168 93 46 52 34 21 6 0 0 0 0 0 0 0 5 0 8 18 26 60 28 21
190 141 125 91 47 192 69 21 55 91 162 148 171 29 16 0 0 0 0 0 0 0 0 0 0 11 22 28 29 45 39 33 29
286 261 173 82 52 310 221 182 206 377 200 208 154 40 1 5 0 0 0 0 0 0 0 0 0 0 0 0 0 0 10 25 42
171 125 57 42 6 19 30 27 97 257 203 167 179 201 91 23 0 0 0 0 0 0 0 0 0 0 0 0 0 0 3 16 22
55 22 19 30 72 18 2 4 1 7 10 33 69 156 169 67 56 0 0 0 0 0 0 0 0 0 0 0 0 0 2 8 10

GFSFLT1_con_sbcape_087.txt.gz
CAPE
235 414 431 259 37 55 36 111 134 94 0 0 0 0 0 0 0 0 0 0 0 0 0 0 0 0 0 0 0 0 0 0 0
112 359 300 175 106 91 293 364 200 53 0 0 0 0 0 0 0 1 0 0 1 0 0 0 0 0 0 0 0 0 0 0 0
93 232 213 160 76 118 301 146 107 64 0 0 0 0 0 0 0 1 0 1 1 0 0 0 0 0 0 0 0 0 1 1 1
7 120 273 146 14 75 60 96 118 82 0 0 0 0 0 0 0 0 0 0 1 0 0 0 0 0 0 0 0 0 0 0 0
32 25 201 169 67 65 38 22 14 0 0 0 0 0 0 0 0 0 0 0 0 0 0 0 0 0 0 0 0 0 0 0 0
6 13 92 144 139 78 37 25 11 3 0 0 0 0 0 0 0 0 0 0 0 0 0 0 0 0 0 0 0 0 0 0 0
0 4 26 109 100 82 46 20 0 0 0 0 0 0 0 0 0 0 0 0 0 0 0 0 0 0 0 0 0 0 0 0 0
9 10 9 35 15 2 8 0 0 0 0 0 0 0 0 0 0 0 0 0 0 0 0 0 0 0 0 0 0 0 0 0 0
5 1 0 0 0 0 0 0 0 0 0 0 0 0 0 0 0 0 0 0 0 0 0 0 40 46 2 0 0 0 0 0 0
1 0 0 0 0 0 0 0 0 0 0 0 0 0 0 0 0 0 0 0 0 0 0 0 3 32 103 51 33 6 0 0 0
32 0 6 0 0 0 0 0 0 0 0 0 0 0 0 0 1 0 0 0 0 0 0 9 15 23 49 93 112 103 60 48 29
0 0 0 0 0 0 0 0 0 0 0 0 0 0 3 2 0 10 17 1 0 0 0 12 36 49 44 67 98 107 129 97 111
54 37 66 68 50 20 0 0 0 0 0 0 0 0 4 2 10 15 17 22 16 2 5 3 11 38 62 82 91 59 179 114 107
190 199 196 146 99 26 15 10 4 6 1 0 0 30 46 41 7 6 11 21 8 5 3 0 0 0 10 57 117 91 90 92 89
411 244 131 138 154 75 41 17 32 15 8 0 6 76 97 80 30 13 8 0 0 0 0 0 3 0 0 4 60 76 79 83 76
512 371 140 173 246 185 69 36 19 18 18 61 62 91 93 65 53 24 0 0 0 0 0 0 0 9 0 0 6 27 73 55 31
321 361 223 229 267 234 211 133 44 35 60 226 150 158 91 35 7 0 0 0 0 0 0 0 0 0 9 0 0 23 37 34 21
427 432 356 279 182 221 311 175 99 149 263 295 225 103 35 70 12 19 0 0 0 0 0 0 0 0 0 0 0 0 4 26 39
347 316 391 284 195 70 41 96 93 203 254 216 150 118 133 65 32 17 0 0 0 0 0 0 0 0 0 0 0 0 0 16 44
238 310 252 156 119 59 63 36 35 1 3 3 0 0 6 51 76 7 0 0 0 0 0 0 0 0 0 0 0 0 0 6 29

GFSFLT1_con_sbcape_090.txt.gz
CAPE
710 617 365 321 246 332 113 89 65 0 0 0 0 0 0 0 0 0 0 0 1 0 0 0 0 0 0 0 0 0 0 0 1
478 344 59 15 100 60 79 116 24 0 0 0 0 0 0 0 0 0 0 0 0 0 0 0 0 0 0 0 0 0 1 1 0
351 147 8 8 75 216 405 203 39 0 0 0 0 0 0 0 0 0 0 2 1 0 0 0 0 0 0 0 0 0 0 0 0
34 19 118 174 143 428 354 141 80 0 0 0 0 0 0 0 0 0 0 0 0 0 0 0 0 0 0 0 0 0 0 0 0
9 69 62 55 169 158 171 159 118 41 0 0 0 0 0 0 0 0 0 0 0 0 0 0 0 0 0 0 0 0 0 0 0
1 11 29 66 112 110 63 35 33 6 0 0 0 0 0 0 0 0 0 0 0 0 0 0 0 0 0 0 0 0 0 0 0
2 13 23 91 102 90 72 42 22 0 0 0 0 0 0 0 0 0 0 0 0 0 0 0 0 0 0 0 0 0 0 0 0
0 0 9 6 2 4 14 4 0 0 0 0 0 0 0 0 0 0 0 0 0 0 0 0 0 0 0 0 0 0 0 0 0
0 0 0 1 0 0 0 0 0 0 0 0 0 0 0 0 0 0 0 0 0 0 0 0 21 51 13 1 0 0 0 0 0
0 0 0 0 0 0 0 0 0 0 0 0 0 0 0 0 0 0 0 0 0 0 0 0 0 3 100 87 50 12 2 0 0
0 0 0 0 0 0 0 0 0 0 0 0 0 0 0 0 0 0 0 0 0 0 0 0 11 21 23 52 106 106 82 62 51
0 0 0 0 0 0 0 0 0 0 0 0 0 0 0 0 0 0 0 0 0 0 6 23 28 31 31 37 128 105 107 95 84
0 0 0 0 0 0 0 0 0 0 0 0 0 0 0 0 0 0 0 0 0 0 7 43 50 23 17 70 107 64 168 144 130
0 0 0 17 28 7 0 0 0 0 0 0 0 0 0 0 0 0 0 0 1 0 0 0 0 0 0 0 40 110 258 114 83
104 105 100 81 71 29 12 7 3 0 4 0 0 0 3 6 3 0 1 0 0 0 0 0 0 0 0 0 2 58 110 45 39
372 235 90 54 123 70 28 39 12 14 11 0 0 3 12 25 11 0 0 0 0 0 0 0 0 0 0 0 0 16 30 42 27
347 314 236 82 167 193 137 58 23 13 8 10 49 25 4 0 1 0 0 0 0 0 0 0 0 0 0 0 0 0 39 26 20
270 271 259 221 201 213 215 190 139 40 32 28 45 47 10 0 0 0 0 0 0 0 0 0 0 0 0 0 0 0 0 9 42
315 297 285 246 180 151 93 32 35 49 111 85 105 1 1 2 3 0 0 0 0 0 0 0 0 0 0 0 0 0 0 0 26
244 249 262 211 127 144 64 81 69 31 35 37 0 0 0 0 0 0 0 0 0 0 0 0 0 0 0 0 0 0 0 0 11

GFSFLT1_con_sbcape_093.txt.gz
CAPE
881 782 898 604 252 73 0 8 5 0 0 0 0 0 0 0 0 0 0 0 0 0 0 0 0 0 0 0 0 1 1 1 1
853 592 586 297 343 214 28 12 0 0 0 0 0 0 0 0 0 0 0 0 0 0 1 0 0 0 0 0 1 1 0 1 2
614 482 111 10 14 69 83 20 0 0 0 0 0 0 0 0 0 0 0 2 0 0 0 0 0 0 0 0 0 0 0 0 1
280 103 7 54 231 537 479 65 0 0 0 0 0 0 0 0 0 0 0 1 0 0 0 0 0 0 0 0 0 0 0 0 0
7 47 29 9 668 529 407 150 21 0 0 0 0 0 0 0 0 0 0 0 0 0 0 0 0 0 0 0 0 0 0 0 0
2 14 22 105 188 223 235 185 115 21 0 0 0 0 0 0 0 0 0 0 0 0 0 0 0 0 0 0 0 0 0 0 0
3 17 12 31 85 77 74 42 17 0 0 0 0 0 0 0 0 0 24 0 0 0 0 0 0 0 0 0 0 0 0 0 0
0 18 16 9 10 0 7 6 0 0 0 0 0 0 0 0 0 0 0 0 0 0 0 0 0 0 0 0 0 0 0 0 0
0 5 16 8 0 0 0 0 0 0 0 0 0 0 0 0 0 0 0 0 0 0 0 0 6 22 13 1 0 0 0 0 0
0 0 0 0 0 0 0 0 0 0 0 0 0 0 0 0 0 0 0 0 0 0 0 0 0 0 48 110 54 16 3 0 0
7 0 0 0 0 0 0 0 0 0 0 0 0 0 0 0 0 0 0 0 0 0 0 0 2 12 19 27 110 94 65 42 18
0 0 0 0 0 0 0 0 0 0 0 0 0 0 0 0 0 0 0 0 0 0 3 16 28 44 60 67 70 190 122 98 71
0 0 0 0 0 0 0 0 0 0 0 0 0 0 0 0 0 0 0 0 0 0 2 94 136 115 73 54 90 210 274 228 219
0 0 0 0 0 0 0 0 0 0 0 0 0 0 0 0 0 0 0 0 0 0 0 0 0 10 25 7 17 87 253 306 183
0 0 0 0 0 0 0 0 0 0 0 0 0 0 0 0 0 0 0 0 0 0 0 0 0 0 0 0 4 41 155 155 25
17 34 14 19 31 0 0 0 0 0 0 0 0 0 0 2 2 0 0 0 0 0 0 0 0 0 0 0 0 63 116 91 49
245 156 82 24 84 36 11 16 19 11 0 1 11 4 5 0 0 0 0 0 0 0 0 0 0 0 0 0 0 0 30 55 23
210 212 216 98 94 127 91 114 38 24 10 7 33 28 32 0 0 0 0 0 0 0 0 0 0 0 0 0 0 0 0 37 38
93 99 119 164 168 161 141 121 120 134 110 66 59 0 0 0 0 0 0 0 0 0 0 0 0 0 0 0 0 0 0 0 34
150 128 70 77 83 116 63 74 76 38 36 28 0 1 0 0 0 0 0 0 0 0 0 0 0 0 0 0 0 0 0 0 14

GFSFLT1_con_sbcape_096.txt.gz
CAPE
1024 1189 1025 700 399 291 31 8 3 0 0 0 0 0 0 0 0 0 0 0 1 1 0 0 0 0 0 1 2 1 0 3 4
1004 1001 810 423 280 87 11 6 0 0 0 0 0 0 0 0 0 0 0 0 1 1 0 0 0 0 1 1 1 0 2 2 3
838 752 731 489 355 49 42 1 0 0 0 0 0 0 0 0 0 0 0 0 0 0 0 0 0 0 0 0 0 0 0 1 3
721 576 493 79 36 362 197 0 0 0 0 0 0 0 0 0 0 0 0 0 0 0 0 0 0 0 0 0 0 0 0 0 2
492 189 34 63 275 425 398 38 0 0 0 0 0 0 0 0 0 0 0 0 0 0 0 0 0 0 0 0 0 0 0 0 0
0 0 16 39 498 671 383 89 34 11 0 0 0 0 0 0 0 0 0 0 0 0 0 0 0 0 0 0 0 0 0 0 0
0 2 8 86 312 353 459 236 75 0 0 0 0 0 0 0 0 0 0 0 0 0 0 0 0 0 0 0 0 0 0 0 0
1 0 5 19 19 13 38 14 0 0 0 0 0 0 0 0 0 0 0 0 0 0 0 0 0 0 0 0 0 0 0 0 0
6 4 0 7 5 0 0 0 0 0 0 0 0 0 0 0 0 0 0 0 0 0 0 0 12 2 0 0 0 0 0 0 0
0 0 3 2 1 0 0 0 0 0 0 0 0 0 0 0 0 0 0 0 0 0 0 0 0 7 38 94 47 16 3 0 0
1 1 1 0 0 0 0 0 0 0 0 0 0 0 0 0 0 0 0 0 0 0 0 4 11 9 6 24 68 78 55 34 7
25 25 2 0 0 0 0 0 0 0 0 0 0 0 0 0 0 0 0 0 0 0 4 52 55 66 74 62 80 284 144 88 80
54 4 3 16 27 0 0 0 0 0 0 0 0 0 0 0 0 0 0 0 0 0 0 90 171 166 136 77 19 118 250 278 301
33 1 11 1 0 0 0 0 0 0 0 0 0 0 0 0 0 0 0 0 0 0 0 0 3 19 63 26 40 43 176 378 280
9 3 1 0 0 0 0 0 0 0 0 0 0 0 0 0 0 0 0 0 0 0 0 0 0 0 0 2 4 30 104 271 149
21 8 0 0 0 0 0 0 0 0 0 0 0 0 0 0 0 0 0 0 0 0 0 0 0 0 0 0 0 41 132 212 82
15 16 6 2 0 0 0 0 0 0 0 0 1 1 0 0 0 0 0 0 0 0 0 0 0 0 0 0 0 4 32 121 66
33 58 61 38 26 15 3 5 22 21 8 13 34 19 33 7 0 0 0 0 0 0 0 0 0 0 0 0 0 0 0 70 62
82 111 166 87 71 117 73 44 58 61 54 69 60 1 0 0 0 0 0 0 0 0 0 0 0 0 0 0 0 0 0 1 46
47 95 76 55 36 52 84 54 96 103 103 63 18 3 0 0 0 0 0 0 0 0 0 0 0 0 0 0 0 0 0 0 5

GFSFLT1_con_sbcape_099.txt.gz
CAPE
911 1344 895 833 704 439 209 130 42 1 0 0 0 0 0 0 0 0 0 0 0 1 1 1 1 1 2 1 1 2 3 5 3
1065 1015 741 583 577 259 51 14 35 0 0 0 0 0 0 0 0 0 0 0 3 2 1 0 0 2 1 0 0 1 3 2 2
815 807 704 534 170 54 28 28 0 0 0 0 0 0 0 0 0 0 0 1 1 1 1 0 1 0 0 0 0 0 0 1 1
813 691 710 449 226 123 30 2 0 0 0 0 0 0 0 0 0 0 0 2 0 0 0 0 0 0 0 0 0 0 0 0 0
426 416 520 532 380 392 122 2 0 0 0 0 0 0 0 0 0 0 0 0 0 0 0 0 0 0 0 0 0 0 0 0 0
50 124 100 87 141 324 132 7 0 0 0 0 0 0 0 0 0 0 0 0 0 0 0 0 0 0 0 0 0 0 0 0 0
19 2 3 35 90 507 329 81 42 0 0 0 0 0 0 0 0 0 0 0 0 0 0 0 0 0 0 0 0 0 0 0 0
0 0 3 8 77 194 193 107 0 0 0 0 0 0 0 0 0 0 0 0 0 0 0 0 0 0 0 0 0 0 0 0 0
0 0 0 11 11 12 8 0 0 0 0 0 0 0 0 0 0 0 0 70 0 0 0 2 5 3 0 0 0 0 0 0 0
6 0 0 0 0 1 0 0 0 0 0 0 0 0 0 0 0 0 0 0 70 11 0 0 23 34 51 59 52 30 8 0 0
20 4 0 0 0 1 0 0 0 0 0 0 0 0 0 0 0 0 0 0 0 2 0 0 0 17 24 38 79 132 129 50 11
49 8 1 0 11 1 0 0 0 0 0 0 0 0 0 0 0 0 0 0 0 0 0 40 0 67 73 71 95 273 205 165 88
53 23 3 2 7 19 16 0 0 0 0 0 0 0 0 0 0 0 0 0 0 0 0 56 151 133 119 117 58 53 208 249 251
26 27 28 0 4 6 16 0 0 0 0 0 0 0 0 0 0 0 0 0 0 0 0 0 0 28 89 52 21 40 113 274 246
54 15 19 1 41 15 0 1 0 0 0 0 0 0 0 0 0 0 0 0 0 0 0 0 0 0 0 0 3 0 31 160 230
81 78 72 36 36 46 1 6 0 0 0 0 0 0 0 0 0 0 0 0 0 0 0 0 0 0 0 0 0 7 56 113 218
51 73 11 5 4 27 7 4 0 0 0 0 0 0 0 0 0 0 0 0 0 0 0 0 0 0 0 0 0 0 3 78 111
7 10 8 0 0 15 10 9 17 3 0 0 8 14 16 0 0 0 0 0 0 0 0 0 0 0 0 0 0 0 0 54 130
65 2 5 0 8 18 7 0 22 32 9 0 9 6 2 37 20 0 0 0 0 0 0 0 0 0 0 0 0 0 0 1 94
39 21 2 11 11 27 34 25 20 24 29 56 17 6 0 0 0 0 0 0 0 0 0 0 0 0 0 0 0 0 0 0 1

GFSFLT1_con_sbcape_102.txt.gz
CAPE
725 1326 1274 1097 806 827 492 87 16 3 0 0 0 0 0 0 0 0 0 0 1 1 1 0 2 4 1 1 1 2 2 0 2
1257 1101 1085 916 701 550 200 93 19 0 0 0 0 0 0 0 0 0 0 0 3 1 0 0 1 1 1 0 1 1 1 2 2
1140 858 1054 792 569 342 69 62 15 0 0 0 0 0 0 0 0 0 0 2 1 1 1 0 0 0 0 0 0 0 1 1 2
1026 809 914 698 615 394 176 67 5 0 0 0 39 0 0 0 0 0 0 4 1 1 0 0 0 0 0 0 0 0 0 0 1
781 617 499 593 555 390 214 2 0 10 0 0 0 0 0 0 0 0 0 3 1 0 0 0 0 0 0 0 0 0 0 0 0
288 253 341 447 530 413 86 0 0 0 0 0 0 0 0 0 0 0 0 1 1 0 0 0 0 0 0 0 0 0 0 0 0
112 153 267 293 337 356 169 7 0 0 0 0 0 0 0 0 0 0 0 0 1 0 0 0 0 0 0 0 0 0 0 0 0
9 0 40 5 20 76 166 33 0 0 0 0 0 0 0 0 0 0 0 0 1 0 0 0 0 0 0 0 0 0 0 0 0
0 0 0 0 26 103 75 5 0 0 0 0 0 0 0 0 0 0 0 2 3 4 0 0 0 0 0 0 0 0 0 0 0
0 1 0 2 11 7 19 0 0 0 0 0 0 0 0 0 0 0 0 0 70 96 22 27 35 34 27 14 8 10 0 0 0
0 1 9 0 8 0 0 0 0 0 0 0 0 0 0 0 0 0 0 0 0 55 63 8 53 37 36 42 115 123 112 84 35
6 14 7 1 4 2 0 0 0 0 0 0 0 0 0 0 0 0 0 0 0 0 0 77 72 84 101 66 86 260 213 208 128
19 12 18 0 1 0 2 2 0 0 0 0 0 0 0 0 0 0 0 0 0 0 0 6 183 215 130 135 150 113 143 220 254
43 42 1 23 13 6 1 11 4 0 0 0 0 0 0 0 0 0 0 0 0 0 0 0 0 50 130 147 148 57 111 210 285
33 0 1 4 0 8 16 4 0 3 8 0 0 0 0 0 0 0 0 0 0 0 0 0 0 0 0 44 22 29 65 101 212
19 23 3 30 0 0 0 29 20 0 0 0 0 0 0 0 0 0 0 0 0 0 0 0 0 0 0 3 16 22 69 148 166
10 66 87 83 60 38 21 27 8 4 3 6 0 0 0 0 0 0 0 0 0 0 0 0 0 0 0 0 0 2 26 166 261
22 40 81 58 50 38 30 27 29 1 0 18 10 5 0 0 0 0 0 0 0 0 0 0 0 0 0 0 0 0 0 104 224
45 27 38 64 14 23 11 3 13 4 1 1 4 11 0 7 10 0 0 0 0 0 0 0 0 0 0 0 0 0 0 7 229
5 49 44 14 5 1 8 0 4 3 36 29 15 11 1 0 0 33 3 0 0 0 0 0 0 0 0 0 0 0 0 0 60

GFSFLT1_con_sbcape_105.txt.gz
CAPE
1203 1344 1082 662 881 815 442 403 219 220 92 0 0 0 0 0 0 0 0 0 0 0 1 2 2 2 3 2 2 2 3 4 6
1234 1292 1107 979 836 900 297 85 5 0 0 0 0 0 0 0 0 0 0 2 2 2 2 2 1 1 2 3 4 4 4 3 2
1032 1155 1222 1111 900 590 225 47 0 0 0 0 0 0 0 0 0 0 0 6 3 2 1 1 0 1 1 1 1 2 2 2 4
928 913 957 926 725 690 512 90 9 2 0 28 0 0 0 0 0 0 0 3 3 1 0 0 0 0 0 0 0 0 0 0 0
801 719 635 592 490 542 448 248 26 55 13 0 0 0 0 0 0 0 0 0 1 0 0 0 0 0 0 0 0 0 0 0 0
573 312 370 443 449 595 486 217 53 55 3 0 0 0 0 0 0 0 0 1 2 0 0 0 0 0 0 0 0 0 0 0 0
568 307 261 437 391 445 374 117 30 4 0 0 0 0 0 0 0 0 0 15 3 0 0 0 0 0 0 0 0 0 0 0 0
574 479 479 366 295 409 146 33 3 3 0 0 0 0 0 0 0 0 0 5 5 3 0 0 0 0 0 0 0 0 0 0 0
452 407 544 305 265 255 231 66 3 0 0 0 0 0 0 0 0 0 0 0 38 8 3 0 0 0 0 0 0 0 0 0 0
119 88 143 255 177 243 239 125 10 0 0 0 0 0 0 0 0 0 0 0 0 68 100 40 15 26 16 13 13 13 0 0 0
158 139 51 59 100 128 197 164 91 0 0 0 0 0 0 0 0 0 0 0 0 0 127 92 94 138 154 132 132 162 149 105 60
112 126 131 119 102 61 25 96 16 8 0 0 0 0 0 0 0 0 0 0 0 0 0 54 71 115 129 138 164 372 200 154 166
165 160 160 131 110 151 149 1 7 0 3 0 0 0 0 0 0 0 0 0 0 0 0 4 112 208 177 190 186 272 142 191 347
142 144 142 133 127 127 143 26 0 1 0 0 0 0 0 0 0 0 0 0 0 0 0 0 0 58 259 196 198 191 146 194 321
100 74 90 129 83 73 113 68 0 0 8 0 10 0 0 0 0 0 0 0 0 0 0 0 0 0 24 130 163 191 75 127 176
97 108 52 64 41 7 22 97 36 1 0 2 0 0 3 0 0 0 0 0 0 0 0 0 0 0 0 55 177 129 94 128 146
63 127 66 32 58 17 6 22 30 18 0 0 0 10 18 11 0 0 0 0 0 1 0 0 0 0 7 20 59 131 132 137 203
36 55 171 158 66 135 23 15 3 7 1 0 21 13 24 15 11 22 40 26 22 6 11 8 5 9 24 0 0 3 63 99 177
111 103 97 150 121 110 44 24 10 16 3 0 10 18 3 45 33 14 5 43 64 44 34 29 5 12 9 8 5 0 0 35 123
80 136 122 161 163 138 119 20 8 15 8 0 0 8 24 81 99 91 62 1 1 37 40 6 1 4 0 0 0 0 0 38 166

GFSFLT1_con_sbcape_108.txt.gz
CAPE
1009 1278 1111 1203 793 822 385 115 79 150 7 1 0 0 0 0 0 0 0 0 0 0 0 1 1 2 2 2 4 4 4 1 2
1177 1008 1051 807 859 667 340 136 71 72 113 0 0 0 0 0 0 0 0 0 2 2 2 2 3 2 2 3 2 4 2 2 0
1016 1163 1412 1040 952 784 482 233 52 3 0 20 0 0 0 0 0 0 0 0 2 3 2 1 1 1 1 1 1 2 1 1 1
1182 1252 1370 1192 1185 699 724 276 14 33 27 64 0 0 0 0 0 0 0 0 5 2 1 0 0 0 0 0 0 0 0 0 0
881 876 966 973 906 905 618 439 72 84 110 177 46 0 0 0 0 0 0 0 5 1 0 0 0 0 0 0 0 0 0 0 0
699 509 549 562 603 572 600 521 208 112 19 58 0 0 0 0 0 0 0 0 5 2 0 0 0 0 0 0 0 0 0 0 0
390 367 265 461 451 395 571 535 202 22 0 0 0 0 0 0 0 0 0 0 5 2 0 0 0 0 0 0 0 0 0 0 0
614 580 656 879 262 473 372 371 35 5 0 0 0 0 0 0 0 0 0 2 39 8 1 0 0 0 0 0 0 0 0 0 0
407 403 661 794 660 587 425 268 10 1 0 0 0 0 0 0 0 0 0 0 73 79 15 1 1 0 0 0 0 0 0 0 0
525 680 709 904 846 660 733 294 69 1 0 0 0 0 0 0 0 0 0 0 4 110 126 84 8 14 10 8 0 0 0 0 0
773 744 698 658 787 475 330 363 193 3 0 0 0 0 0 0 0 0 0 0 0 0 129 282 235 182 154 136 125 108 115 84 53
422 584 555 593 706 222 210 262 138 124 0 0 0 0 0 0 0 0 0 0 0 0 0 42 293 246 249 259 235 345 273 245 167
320 320 364 362 349 359 351 292 184 169 84 30 0 0 0 0 0 0 0 0 0 0 0 17 128 315 273 302 266 451 340 372 405
228 262 218 206 273 282 347 343 292 103 138 0 0 5 0 0 0 0 0 0 0 0 0 0 0 55 300 313 372 352 384 384 329
212 230 218 166 145 208 313 261 238 197 210 4 16 52 29 1 0 0 0 0 0 0 0 0 0 0 13 134 245 316 416 477 309
219 227 206 112 82 134 105 92 156 48 112 2 0 1 0 1 8 2 0 0 0 0 0 0 0 0 0 28 211 239 302 315 305
234 213 237 234 151 67 29 55 71 47 152 76 61 23 1 0 0 0 0 7 41 31 38 44 33 32 37 19 45 225 281 310 209
287 218 297 255 197 95 144 203 155 110 99 78 55 28 9 0 0 0 0 43 77 66 83 80 105 102 105 97 74 47 206 333 269
333 323 193 227 223 195 309 313 155 138 59 62 23 2 0 12 0 0 14 35 66 69 106 109 139 147 160 112 97 57 76 245 274
339 338 276 287 289 215 283 305 251 167 18 3 0 3 0 0 21 1 27 9 36 62 89 142 122 132 147 154 148 12 18 123 161

GFSFLT1_con_sbcape_111.txt.gz
CAPE
838 1024 994 1084 831 882 945 415 140 214 93 41 4 0 0 0 0 0 0 0 0 0 0 0 1 2 2 2 2 2 2 2 2
1122 1123 1434 1327 760 794 532 199 101 28 30 0 0 0 0 0 0 0 0 0 0 1 2 1 1 1 2 2 2 2 2 1 2
1065 1152 1302 1194 731 709 519 281 107 20 24 12 0 0 0 0 0 0 0 0 0 1 1 0 0 0 1 1 1 1 2 1 1
1128 1013 1197 1205 1232 1095 835 539 302 27 9 152 45 0 0 0 0 0 2 0 1 0 0 0 0 0 0 0 0 0 0 0 0
855 785 780 1204 1142 1029 821 442 227 124 148 162 23 0 0 0 0 0 4 0 2 1 0 0 0 0 0 0 0 0 0 0 0
501 458 420 848 875 777 582 423 295 216 63 162 10 0 0 0 0 0 41 0 4 4 0 0 0 0 0 0 0 0 0 0 0
65 162 295 600 770 570 606 477 300 52 0 0 0 0 0 0 0 0 37 51 19 8 2 0 0 0 0 0 0 0 0 0 0
237 358 527 681 335 764 351 292 119 3 0 0 0 0 0 0 0 0 3 5 71 40 2 1 0 0 0 0 0 0 0 0 0
134 259 608 765 757 789 925 693 235 56 0 0 0 0 0 0 0 0 0 0 38 91 54 1 1 1 0 0 0 0 0 0 0
326 372 599 587 903 867 880 801 320 93 4 1 0 0 0 0 0 0 0 0 0 33 145 122 26 1 1 1 1 0 0 0 0
541 837 924 911 1141 1030 772 573 666 165 2 2 0 0 0 0 0 0 0 0 0 0 13 175 173 137 62 79 71 56 58 51 36
251 483 821 811 1028 865 981 676 548 209 23 0 0 0 0 0 0 0 0 0 0 0 0 0 97 346 316 319 239 435 533 371 233
133 214 436 411 433 505 512 299 136 168 57 14 0 0 0 0 0 0 0 0 0 0 0 17 38 127 339 378 382 494 429 485 406
81 22 80 170 265 288 340 489 481 312 314 210 89 1 0 0 0 0 0 0 0 0 0 0 0 30 230 246 429 627 473 386 493
88 113 51 72 196 315 331 340 351 275 196 80 85 153 34 0 0 0 0 0 0 0 0 0 0 0 10 69 145 385 579 563 631
245 176 119 213 200 181 224 215 208 197 197 164 88 102 69 14 0 0 0 0 0 0 0 0 0 0 0 2 88 174 290 591 695
324 166 198 303 334 199 190 176 164 159 131 25 18 23 4 0 0 6 10 0 0 12 11 0 0 11 18 2 14 130 178 295 449
511 392 354 236 320 303 254 154 117 152 186 79 99 30 6 4 12 2 0 1 0 0 7 2 5 27 39 70 50 5 113 341 358
377 558 485 387 287 259 278 331 288 286 248 195 153 100 47 0 18 1 0 0 0 0 0 5 7 44 69 58 87 73 46 209 290
323 363 387 410 343 297 319 313 359 358 289 217 133 90 87 35 1 0 3 24 3 4 1 21 43 59 56 101 118 73 85 225 313

GFSFLT1_con_sbcape_114.txt.gz
CAPE
973 995 838 829 882 853 1013 708 305 404 346 11 2 0 0 0 0 0 0 0 0 0 0 0 0 2 3 3 3 2 2 2 0
1097 1304 1243 1127 1186 770 719 484 192 107 188 52 16 0 0 0 0 0 0 0 0 0 1 0 1 3 3 3 3 2 3 2 2
1012 929 1115 1429 1227 636 793 491 159 76 60 1 0 0 0 0 0 0 0 0 0 3 1 0 0 1 1 1 1 2 3 2 0
1030 1240 1096 1072 1314 734 964 599 403 79 113 208 65 0 0 0 0 0 0 0 0 3 0 0 0 0 0 0 0 0 0 0 0
976 929 781 1038 1152 1156 902 633 474 451 223 260 41 0 0 0 0 0 0 67 0 1 0 0 0 0 0 0 0 0 0 0 0
360 438 356 721 1067 1148 1005 718 410 221 64 104 0 0 0 0 0 0 46 0 0 1 0 0 0 0 0 0 0 0 0 0 0
147 336 270 591 777 819 867 559 278 85 0 6 1 0 0 0 0 0 133 56 0 4 0 0 0 0 0 0 0 0 0 0 0
11 52 148 281 426 492 406 182 18 0 0 0 0 0 0 0 0 0 96 82 9 41 4 0 0 0 0 0 0 0 0 0 0
92 81 318 287 239 382 254 114 21 0 0 0 0 0 0 0 0 0 0 115 35 75 96 9 1 1 1 0 0 0 0 0 0
106 59 123 446 378 305 305 215 164 36 0 0 0 0 0 0 0 0 0 2 108 70 144 178 75 3 3 3 2 0 0 0 0
173 204 259 293 324 408 338 240 223 46 11 0 0 0 0 0 0 0 0 0 4 78 52 160 335 204 100 89 72 4 2 3 2
142 233 242 275 293 374 262 251 208 142 2 0 0 0 0 0 0 0 0 0 0 0 3 0 90 321 466 349 244 380 418 383 327
64 231 166 239 211 212 250 243 177 170 46 7 0 0 0 0 0 0 0 0 0 0 13 69 110 146 214 462 496 682 457 469 484
49 47 36 5 2 50 87 141 174 69 50 32 19 0 0 0 0 0 0 0 0 0 0 0 5 70 237 131 327 550 693 625 532
49 20 36 8 1 8 46 61 73 103 92 128 99 30 0 0 0 0 0 0 0 0 0 0 0 0 61 176 152 361 939 864 650
116 150 82 5 10 5 83 77 127 146 165 125 77 66 86 43 0 0 0 0 0 0 0 0 0 0 0 43 171 332 455 960 939
269 242 142 114 114 122 112 74 129 127 148 144 98 23 17 55 22 1 0 0 0 0 0 0 0 0 0 0 35 150 318 340 885
314 189 200 210 147 201 173 161 149 89 88 177 131 78 3 4 0 5 0 0 0 0 0 0 0 0 0 0 1 15 116 325 544
412 226 457 258 170 166 148 200 147 79 118 153 138 59 31 2 0 0 0 0 0 0 0 0 0 0 0 0 0 1 22 188 278
1 1 135 185 154 96 106 181 125 136 90 91 58 104 64 13 12 2 0 0 0 0 0 0 0 0 0 4 17 27 43 184 248

GFSFLT1_con_sbcape_117.txt.gz
CAPE
1090 1021 883 596 697 941 1277 729 406 540 383 60 0 0 0 0 0 0 0 0 0 6 1 0 2 3 1 3 1 3 3 1 2
1070 1248 1135 1014 1057 1044 894 624 365 182 210 22 34 0 0 0 0 0 0 0 0 0 2 3 4 4 3 4 2 1 1 1 1
1209 1294 1218 1413 1200 1153 710 811 418 138 90 74 27 0 0 0 0 0 0 0 0 2 1 0 1 4 4 3 2 3 1 0 1
1178 1357 1294 1254 1475 1176 820 948 647 188 145 216 0 0 0 0 0 0 0 54 0 1 0 0 1 1 1 0 0 0 0 0 0
1004 1013 1015 1253 1163 1139 993 1018 631 452 363 370 140 0 0 0 0 0 0 165 0 1 0 0 0 0 0 0 0 0 0 0 0
405 472 495 712 1043 1088 1185 939 667 384 206 118 101 0 0 0 0 0 9 106 9 0 0 0 1 0 0 0 0 0 0 0 0
308 252 202 332 731 783 1210 1002 572 112 0 3 0 0 0 0 0 0 67 227 68 6 0 0 0 0 0 0 0 0 0 0 0
95 3 29 57 314 379 593 610 186 6 0 0 0 0 0 0 0 0 79 470 62 34 2 0 2 1 0 0 0 0 0 0 0
8 0 36 97 184 199 153 63 37 4 0 0 0 0 0 0 0 0 0 339 239 35 73 9 1 2 2 0 0 0 0 0 0
43 32 80 183 159 164 116 77 49 25 1 0 0 0 0 0 0 0 0 28 296 358 159 181 88 13 3 3 2 1 0 0 0
58 20 86 129 220 181 208 147 107 62 29 0 0 0 0 0 0 0 0 0 83 327 560 281 318 257 95 54 36 10 2 2 2
94 73 76 189 278 261 138 103 166 93 3 15 0 0 0 0 0 0 0 0 2 65 335 332 551 752 422 295 155 367 349 229 193
2 58 236 214 247 250 193 235 203 182 39 5 0 0 0 0 0 0 0 0 0 0 44 146 284 484 360 479 583 794 648 544 535
13 90 79 13 41 95 98 126 138 96 115 52 5 0 0 0 0 0 0 0 0 0 0 3 40 114 377 197 345 838 925 715 606
0 51 49 11 6 5 11 50 40 44 9 43 55 29 9 0 0 0 0 0 0 0 0 0 0 3 111 286 316 605 983 927 798
105 55 25 11 0 0 0 46 21 7 16 34 40 17 20 8 8 0 0 0 0 0 0 0 0 0 8 86 221 423 712 1127 1115
322 234 106 19 0 0 6 91 116 134 137 37 35 27 42 37 59 70 50 9 0 0 0 0 0 0 0 0 71 202 394 678 1188
385 414 326 121 24 38 88 105 126 97 76 90 46 45 31 5 34 87 69 47 8 0 0 0 0 0 0 0 1 8 116 339 663
11 204 324 179 129 55 112 54 39 17 36 47 59 39 7 0 0 0 21 48 16 0 0 0 0 0 0 0 0 0 11 182 334
0 2 58 50 69 20 19 89 152 154 195 116 41 39 52 49 50 41 1 0 0 0 0 0 0 0 0 0 0 0 0 187 340